Darstellungsparameter: Aktuell verwendete Einstellungen:
Skalierung der Graphiken ... ?
xyx+y,   Skalierungsfaktor:      Skalierung: Modus: x, Faktor: 1
Darstellungszeitraum ... ?
Vom - - bis: - -   Zeitraum: 01.01.2017 - 31.12.2019
Min/Max/Avg-Anzeige ... ?
Zeige MMA aktuell
Zeige MMA Monat
Zeige MMA alles
Zeige --A aktuell
Zeige --A Monat
Zeige --A alles
Keine MMA-Anzeige
MMA:
Average (ber die Originaldaten)
MMA-Basis: 01.01.2017 - 31.12.2019
Quicknavigation für Darstellung... ?
Tage:      1T, 2T, 3T, 5T -1T -2T -3T -5T +1T +2T +3T +5T
Wochen: 1W, 2W, 3W -1W -2W -3W +1W +2W +3W
Monate: 1M, 3M, 6M -1M -3M -6M +1M +3M +6M
Jahre:    1J, 3J, 5J, 10J -1J -3J -5J -10J +1J +3J +5J +10J
Nutze für die Darstellung ... ?
Originaldaten oder ...
Mittelwerte Minima Maxima auf...
Stundenbasis Tagesbasis Wochenbasis
Monatsbasis Jahresbasis      Datenbasis: Mittelwerte auf Tagesbasis
Darstellen als:
Statistik (Auto) Statistik J:M      Darstellung:
Zur Graphik,    zurück zur Übersicht aller Sensoren.
 
Tabellarische Datenbersicht: ?
 
Sensor: Nr:Datum:Temp:Feuchte:
Aussen-T/F 1 01-01-2017 00:00:00 -2.645 C 37.8583 %
2 02-01-2017 00:00:00 -0.26417 C 43.1250 %
3 03-01-2017 00:00:00 0.27717 C 59.5652 %
4 04-01-2017 00:00:00 2.4725 C 33.8417 %
5 05-01-2017 00:00:00 -1.62667 C 32.9833 %
6 06-01-2017 00:00:00 -8.04417 C 33.4250 %
7 07-01-2017 00:00:00 -5.00833 C 28.8833 %
8 08-01-2017 00:00:00 -0.27333 C 48.8667 %
9 09-01-2017 00:00:00 1.305 C 49.9167 %
10 10-01-2017 00:00:00 0.33833 C 54.5917 %
11 11-01-2017 00:00:00 2.7675 C 49.3083 %
12 12-01-2017 00:00:00 3.39 C 26.6583 %
13 13-01-2017 00:00:00 1.16833 C 32.4417 %
14 14-01-2017 00:00:00 1.5625 C 26.2083 %
15 15-01-2017 00:00:00 -0.2875 C 38.9417 %
16 16-01-2017 00:00:00 -2.95333 C 40.8917 %
17 17-01-2017 00:00:00 -5.14333 C 33.6917 %
18 18-01-2017 00:00:00 -7.12917 C 33.7333 %
19 19-01-2017 00:00:00 -8.02917 C 34.5500 %
20 20-01-2017 00:00:00 -8.47167 C 31.5833 %
21 21-01-2017 00:00:00 -7.91167 C 34.8083 %
22 22-01-2017 00:00:00 -9.46417 C 33.6583 %
23 23-01-2017 00:00:00 -6.45667 C 35.5667 %
24 24-01-2017 00:00:00 -1.59917 C 36.1417 %
25 25-01-2017 00:00:00 -2.06134 C 21.1008 %
Sensor: Nr:Datum:Temp:Feuchte:
Aussen-T/F 26 26-01-2017 00:00:00 -3.27167 C 23.9917 %
27 27-01-2017 00:00:00 -4.87833 C 33.7583 %
28 28-01-2017 00:00:00 -3.13417 C 35.4000 %
29 29-01-2017 00:00:00 1.74917 C 38.4417 %
30 30-01-2017 00:00:00 3.64583 C 50.8083 %
31 31-01-2017 00:00:00 2.45083 C 33.8167 %
32 01-02-2017 00:00:00 2.82417 C 29.1583 %
33 02-02-2017 00:00:00 3.84417 C 50.3250 %
34 03-02-2017 00:00:00 4.79833 C 53.5417 %
35 04-02-2017 00:00:00 4.85833 C 34.5500 %
36 05-02-2017 00:00:00 3.81333 C 37.2333 %
37 06-02-2017 00:00:00 2.905 C 39.3000 %
38 07-02-2017 00:00:00 3.68333 C 32.7000 %
39 08-02-2017 00:00:00 2.47583 C 26.7500 %
40 09-02-2017 00:00:00 -0.87083 C 28.4083 %
41 10-02-2017 00:00:00 0.07583 C 21.2250 %
42 11-02-2017 00:00:00 1.1675 C 39.9583 %
43 12-02-2017 00:00:00 1.77167 C 49.6917 %
44 13-02-2017 00:00:00 2.44917 C 24.7083 %
45 14-02-2017 00:00:00 0.02083 C 31.7250 %
46 15-02-2017 00:00:00 0.65333 C 38.4083 %
47 16-02-2017 00:00:00 2.98583 C 54.9000 %
48 17-02-2017 00:00:00 5.05167 C 53.0917 %
49 18-02-2017 00:00:00 5.56917 C 38.1000 %
50 19-02-2017 00:00:00 2.74417 C 39.9417 %
Sensor: Nr:Datum:Temp:Feuchte:
Aussen-T/F 51 20-02-2017 00:00:00 7.83667 C 30.5667 %
52 21-02-2017 00:00:00 9.77417 C 33.2917 %
53 22-02-2017 00:00:00 10.86167 C 22.7083 %
54 23-02-2017 00:00:00 8.95167 C 22.1250 %
55 24-02-2017 00:00:00 4.4525 C 26.0917 %
56 25-02-2017 00:00:00 3.06333 C 34.4667 %
57 26-02-2017 00:00:00 8.2025 C 22.5667 %
58 27-02-2017 00:00:00 10.56417 C 22.7417 %
59 28-02-2017 00:00:00 5.03667 C 25.5167 %
60 01-03-2017 00:00:00 6.07333 C 27.2250 %
61 02-03-2017 00:00:00 7.615 C 21.8417 %
62 03-03-2017 00:00:00 5.64417 C 27.7417 %
63 04-03-2017 00:00:00 10.41667 C 24.1750 %
64 05-03-2017 00:00:00 6.48667 C 29.1917 %
65 06-03-2017 00:00:00 5.80083 C 30.7583 %
66 07-03-2017 00:00:00 5.375 C 37.1500 %
67 08-03-2017 00:00:00 4.1425 C 57.5333 %
68 09-03-2017 00:00:00 10.71 C 40.6917 %
69 10-03-2017 00:00:00 7.1775 C 21.1917 %
70 11-03-2017 00:00:00 5.8775 C 29.0333 %
71 12-03-2017 00:00:00 5.82167 C 27.9833 %
72 13-03-2017 00:00:00 5.775 C 26.7667 %
73 14-03-2017 00:00:00 8.80333 C 26.7000 %
74 15-03-2017 00:00:00 10.8 C 22.7333 %
75 16-03-2017 00:00:00 7.71667 C 32.6833 %
Sensor: Nr:Datum:Temp:Feuchte:
Aussen-T/F 76 17-03-2017 00:00:00 8.33917 C 22.4167 %
77 18-03-2017 00:00:00 8.97583 C 28.3167 %
78 19-03-2017 00:00:00 12.0025 C 29.0167 %
79 20-03-2017 00:00:00 11.53917 C 20.0000 %
80 21-03-2017 00:00:00 8.86 C 25.1667 %
81 22-03-2017 00:00:00 5.1675 C 32.8583 %
82 23-03-2017 00:00:00 8.915 C 31.3000 %
83 24-03-2017 00:00:00 9.54583 C 23.0250 %
84 25-03-2017 00:00:00 9.54417 C 26.8417 %
85 26-03-2017 00:00:00 9.08696 C 20.0000 %
86 27-03-2017 00:00:00 8.34583 C 26.6083 %
87 28-03-2017 00:00:00 9.97417 C 22.6583 %
88 29-03-2017 00:00:00 12.77833 C 22.9417 %
89 30-03-2017 00:00:00 14.22417 C 22.9833 %
90 31-03-2017 00:00:00 13.35333 C 29.3000 %
91 01-04-2017 00:00:00 13.83417 C 20.9000 %
92 02-04-2017 00:00:00 11.94167 C 24.9167 %
93 03-04-2017 00:00:00 10.62 C 26.7750 %
94 04-04-2017 00:00:00 9.20333 C 28.3417 %
95 05-04-2017 00:00:00 8.82333 C 22.4667 %
96 06-04-2017 00:00:00 9.21083 C 20.3667 %
97 07-04-2017 00:00:00 10.40583 C 23.0667 %
98 08-04-2017 00:00:00 13.42167 C 20.0917 %
99 09-04-2017 00:00:00 12.59 C 28.2250 %
100 10-04-2017 00:00:00 10.98833 C 23.4333 %
Sensor: Nr:Datum:Temp:Feuchte:
Aussen-T/F 101 11-04-2017 00:00:00 10.6675 C 20.0000 %
102 12-04-2017 00:00:00 11.54667 C 20.0083 %
103 13-04-2017 00:00:00 12.27417 C 20.7667 %
104 14-04-2017 00:00:00 10.30417 C 22.3083 %
105 15-04-2017 00:00:00 8.6675 C 21.4500 %
106 16-04-2017 00:00:00 7.34417 C 23.7417 %
107 17-04-2017 00:00:00 6.805 C 28.0667 %
108 18-04-2017 00:00:00 5.69667 C 20.6333 %
109 19-04-2017 00:00:00 4.65667 C 28.3500 %
110 20-04-2017 00:00:00 6.6825 C 23.4667 %
111 21-04-2017 00:00:00 8.16917 C 22.1500 %
112 22-04-2017 00:00:00 9.88 C 20.0000 %
113 23-04-2017 00:00:00 7.65 C 20.5333 %
114 24-04-2017 00:00:00 6.5875 C 27.3250 %
115 25-04-2017 00:00:00 7.13193 C 20.0000 %
116 26-04-2017 00:00:00 7.62583 C 20.1500 %
117 27-04-2017 00:00:00 7.74917 C 23.9083 %
118 28-04-2017 00:00:00 6.26083 C 27.3167 %
119 29-04-2017 00:00:00 9.68667 C 30.5750 %
120 30-04-2017 00:00:00 11.3975 C 20.0000 %
121 01-05-2017 00:00:00 9.75083 C 27.4250 %
122 02-05-2017 00:00:00 8.5825 C 45.3500 %
123 03-05-2017 00:00:00 10.7175 C 39.5000 %
124 04-05-2017 00:00:00 11.94833 C 30.7750 %
125 05-05-2017 00:00:00 12.685 C 23.2667 %
Sensor: Nr:Datum:Temp:Feuchte:
Aussen-T/F 126 06-05-2017 00:00:00 13.30333 C 33.1667 %
127 07-05-2017 00:00:00 12.8375 C 37.3083 %
128 08-05-2017 00:00:00 9.69083 C 26.5500 %
129 09-05-2017 00:00:00 11.87667 C 24.9000 %
130 10-05-2017 00:00:00 11.33833 C 26.9167 %
131 11-05-2017 00:00:00 14.63833 C 25.1750 %
132 12-05-2017 00:00:00 16.395 C 30.7500 %
133 13-05-2017 00:00:00 18.05917 C 28.5167 %
134 14-05-2017 00:00:00 16.575 C 24.9333 %
135 15-05-2017 00:00:00 16.65 C 33.9583 %
136 16-05-2017 00:00:00 20.58167 C 20.0000 %
137 17-05-2017 00:00:00 21.33 C 20.8417 %
138 18-05-2017 00:00:00 18.02917 C 26.7583 %
139 19-05-2017 00:00:00 13.17667 C 46.5833 %
140 20-05-2017 00:00:00 12.655 C 37.4083 %
141 21-05-2017 00:00:00 14.64917 C 29.2750 %
142 22-05-2017 00:00:00 17.3675 C 27.8667 %
143 23-05-2017 00:00:00 19.65167 C 23.7417 %
144 24-05-2017 00:00:00 17.405 C 20.4000 %
145 25-05-2017 00:00:00 20.29 C 21.8917 %
146 26-05-2017 00:00:00 19.73833 C 24.5250 %
147 27-05-2017 00:00:00 22.6075 C 24.8667 %
148 28-05-2017 00:00:00 21.81583 C 24.8250 %
149 29-05-2017 00:00:00 24.57833 C 34.4500 %
150 30-05-2017 00:00:00 22.94833 C 21.0500 %
Sensor: Nr:Datum:Temp:Feuchte:
Aussen-T/F 151 31-05-2017 00:00:00 20.15917 C 21.0333 %
152 01-06-2017 00:00:00 20.24833 C 23.6500 %
153 02-06-2017 00:00:00 19.48083 C 25.5083 %
154 03-06-2017 00:00:00 19.46417 C 36.0000 %
155 04-06-2017 00:00:00 16.96583 C 37.9333 %
156 05-06-2017 00:00:00 17.975 C 34.7083 %
157 06-06-2017 00:00:00 16.04667 C 23.7250 %
158 07-06-2017 00:00:00 14.48333 C 20.5500 %
159 08-06-2017 00:00:00 19.25 C 21.2917 %
160 09-06-2017 00:00:00 18.0925 C 23.5250 %
161 10-06-2017 00:00:00 19.44 C 25.5417 %
162 11-06-2017 00:00:00 21.575 C 23.5750 %
163 12-06-2017 00:00:00 22.1675 C 20.1333 %
164 13-06-2017 00:00:00 19.81833 C 20.2667 %
165 14-06-2017 00:00:00 20.985 C 24.1917 %
166 15-06-2017 00:00:00 22.28333 C 21.9500 %
167 16-06-2017 00:00:00 20.18667 C 20.0000 %
168 17-06-2017 00:00:00 18.07917 C 20.4667 %
169 18-06-2017 00:00:00 23.58667 C 21.1333 %
170 19-06-2017 00:00:00 24.0825 C 23.3000 %
171 20-06-2017 00:00:00 25.57083 C 21.0333 %
172 21-06-2017 00:00:00 27.36167 C 20.0000 %
173 22-06-2017 00:00:00 24.04083 C 25.6833 %
174 23-06-2017 00:00:00 23.645 C 21.6583 %
175 24-06-2017 00:00:00 21.56417 C 21.1667 %
Sensor: Nr:Datum:Temp:Feuchte:
Aussen-T/F 176 25-06-2017 00:00:00 20.95 C 20.0000 %
177 26-06-2017 00:00:00 23.18333 C 20.0000 %
178 27-06-2017 00:00:00 19.20417 C 25.8000 %
179 28-06-2017 00:00:00 20.19167 C 37.8250 %
180 29-06-2017 00:00:00 18.5125 C 27.5083 %
181 30-06-2017 00:00:00 18.34833 C 22.5167 %
182 01-07-2017 00:00:00 16.22083 C 30.4250 %
183 02-07-2017 00:00:00 16.92 C 32.0250 %
184 03-07-2017 00:00:00 18.83333 C 27.3833 %
185 04-07-2017 00:00:00 21.9375 C 21.4833 %
186 05-07-2017 00:00:00 23.425 C 23.6833 %
187 06-07-2017 00:00:00 22.78417 C 24.7917 %
188 07-07-2017 00:00:00 24.54667 C 34.9667 %
189 08-07-2017 00:00:00 24.04167 C 22.1750 %
190 09-07-2017 00:00:00 23.87667 C 21.6750 %
191 10-07-2017 00:00:00 19.995 C 36.4250 %
192 11-07-2017 00:00:00 19.97417 C 25.9167 %
193 12-07-2017 00:00:00 17.8025 C 27.7583 %
194 13-07-2017 00:00:00 17.10583 C 27.2083 %
195 14-07-2017 00:00:00 16.94333 C 24.9917 %
196 15-07-2017 00:00:00 17.56583 C 24.2833 %
197 16-07-2017 00:00:00 19.83833 C 21.7500 %
198 17-07-2017 00:00:00 22.11583 C 25.7917 %
199 18-07-2017 00:00:00 23.18917 C 26.1500 %
200 19-07-2017 00:00:00 24.29083 C 22.7083 %
Sensor: Nr:Datum:Temp:Feuchte:
Aussen-T/F 201 20-07-2017 00:00:00 22.56083 C 28.0583 %
202 21-07-2017 00:00:00 21.25917 C 21.7417 %
203 22-07-2017 00:00:00 22.86083 C 31.7667 %
204 23-07-2017 00:00:00 19.16417 C 32.9917 %
205 24-07-2017 00:00:00 15.17 C 34.9083 %
206 25-07-2017 00:00:00 14.17917 C 53.8250 %
207 26-07-2017 00:00:00 17.7925 C 34.8833 %
208 27-07-2017 00:00:00 19.165 C 34.9917 %
209 28-07-2017 00:00:00 17.4625 C 30.7500 %
210 29-07-2017 00:00:00 20.93333 C 25.8500 %
211 30-07-2017 00:00:00 23.44917 C 24.9833 %
212 31-07-2017 00:00:00 21.3325 C 25.8250 %
213 01-08-2017 00:00:00 20.18333 C 47.5000 %
214 02-08-2017 00:00:00 22.01833 C 35.3417 %
215 03-08-2017 00:00:00 21.82833 C 28.1250 %
216 04-08-2017 00:00:00 21.0775 C 24.1917 %
217 05-08-2017 00:00:00 19.94833 C 23.8417 %
218 06-08-2017 00:00:00 18.32583 C 25.1000 %
219 07-08-2017 00:00:00 17.93417 C 26.7083 %
220 08-08-2017 00:00:00 17.9375 C 27.5583 %
221 09-08-2017 00:00:00 18.1525 C 23.5583 %
222 10-08-2017 00:00:00 15.35 C 47.5833 %
223 11-08-2017 00:00:00 14.705 C 51.5167 %
224 12-08-2017 00:00:00 15.305 C 40.2750 %
225 13-08-2017 00:00:00 18.60917 C 28.7333 %
Sensor: Nr:Datum:Temp:Feuchte:
Aussen-T/F 226 14-08-2017 00:00:00 18.56167 C 33.7917 %
227 15-08-2017 00:00:00 18.83833 C 38.5333 %
228 16-08-2017 00:00:00 19.97167 C 37.3917 %
229 17-08-2017 00:00:00 19.57167 C 33.3667 %
230 18-08-2017 00:00:00 18.17417 C 43.5167 %
231 19-08-2017 00:00:00 14.47417 C 43.3667 %
232 20-08-2017 00:00:00 14.925 C 30.8417 %
233 21-08-2017 00:00:00 16.3575 C 28.8917 %
234 22-08-2017 00:00:00 16.08833 C 31.8500 %
235 23-08-2017 00:00:00 17.92583 C 30.8917 %
236 24-08-2017 00:00:00 19.9075 C 26.1917 %
237 25-08-2017 00:00:00 18.30833 C 37.3750 %
238 26-08-2017 00:00:00 20.88833 C 44.3167 %
239 27-08-2017 00:00:00 19.63083 C 34.5250 %
240 28-08-2017 00:00:00 19.4775 C 30.1667 %
241 29-08-2017 00:00:00 20.03667 C 34.9500 %
242 30-08-2017 00:00:00 20.91167 C 31.6750 %
243 31-08-2017 00:00:00 17.32857 C 27.5210 %
244 01-09-2017 00:00:00 14.1 C 34.5083 %
245 02-09-2017 00:00:00 14.51417 C 34.0667 %
246 03-09-2017 00:00:00 12.90417 C 31.6750 %
247 04-09-2017 00:00:00 13.94167 C 34.8750 %
248 05-09-2017 00:00:00 17.87 C 36.6833 %
249 06-09-2017 00:00:00 17.47083 C 25.8083 %
250 07-09-2017 00:00:00 15.90083 C 21.1083 %
Sensor: Nr:Datum:Temp:Feuchte:
Aussen-T/F 251 08-09-2017 00:00:00 15.99583 C 20.6583 %
252 09-09-2017 00:00:00 14.54 C 39.9417 %
253 10-09-2017 00:00:00 13.27583 C 43.1833 %
254 11-09-2017 00:00:00 14.27083 C 26.4083 %
255 12-09-2017 00:00:00 14.32583 C 26.1417 %
256 13-09-2017 00:00:00 13.965 C 38.8333 %
257 14-09-2017 00:00:00 11.75417 C 39.2750 %
258 15-09-2017 00:00:00 12.5175 C 33.8750 %
259 16-09-2017 00:00:00 10.11333 C 40.9500 %
260 17-09-2017 00:00:00 9.67 C 51.4833 %
261 18-09-2017 00:00:00 10.46 C 46.2417 %
262 19-09-2017 00:00:00 11.76 C 32.8500 %
263 20-09-2017 00:00:00 11.29583 C 42.5167 %
264 21-09-2017 00:00:00 10.49 C 44.7417 %
265 22-09-2017 00:00:00 11.12417 C 43.8917 %
266 23-09-2017 00:00:00 13.495 C 40.1917 %
267 24-09-2017 00:00:00 12.475 C 44.1417 %
268 25-09-2017 00:00:00 12.56583 C 44.0250 %
269 26-09-2017 00:00:00 13.27167 C 41.8333 %
270 27-09-2017 00:00:00 13.05083 C 43.9333 %
271 28-09-2017 00:00:00 14.64667 C 44.6000 %
272 29-09-2017 00:00:00 17.38667 C 38.5083 %
273 30-09-2017 00:00:00 14.205 C 48.5667 %
274 01-10-2017 00:00:00 10.23667 C 56.3000 %
275 02-10-2017 00:00:00 13.38833 C 43.6167 %
Sensor: Nr:Datum:Temp:Feuchte:
Aussen-T/F 276 03-10-2017 00:00:00 12.20667 C 42.3667 %
277 04-10-2017 00:00:00 11.05583 C 31.0333 %
278 05-10-2017 00:00:00 12.92833 C 21.9667 %
279 06-10-2017 00:00:00 9.4 C 33.6250 %
280 07-10-2017 00:00:00 9.55083 C 31.6583 %
281 08-10-2017 00:00:00 11.81833 C 41.5417 %
282 09-10-2017 00:00:00 10.9925 C 47.1583 %
283 10-10-2017 00:00:00 12.88917 C 31.8167 %
284 11-10-2017 00:00:00 13.19167 C 31.2083 %
285 12-10-2017 00:00:00 13.13667 C 36.6500 %
286 13-10-2017 00:00:00 13.9275 C 38.7583 %
287 14-10-2017 00:00:00 12.47167 C 50.0167 %
288 15-10-2017 00:00:00 11.94833 C 54.6750 %
289 16-10-2017 00:00:00 12.63333 C 51.4833 %
290 17-10-2017 00:00:00 12.20667 C 52.4250 %
291 18-10-2017 00:00:00 11.85333 C 50.4167 %
292 19-10-2017 00:00:00 11.0025 C 50.7750 %
293 20-10-2017 00:00:00 11.63697 C 37.7479 %
294 21-10-2017 00:00:00 11.28083 C 38.1917 %
295 22-10-2017 00:00:00 10.28417 C 24.4167 %
296 23-10-2017 00:00:00 10.42417 C 23.7667 %
297 24-10-2017 00:00:00 12.76333 C 33.7917 %
298 25-10-2017 00:00:00 15.1425 C 27.6500 %
299 26-10-2017 00:00:00 13.17917 C 29.2667 %
300 27-10-2017 00:00:00 10.80833 C 33.6167 %
Sensor: Nr:Datum:Temp:Feuchte:
Aussen-T/F 301 28-10-2017 00:00:00 10.09833 C 24.5250 %
302 29-10-2017 00:00:00 10.1184 C 26.6160 %
303 30-10-2017 00:00:00 6.43917 C 30.2667 %
304 31-10-2017 00:00:00 7.06917 C 27.1250 %
305 01-11-2017 00:00:00 7.99917 C 24.8000 %
306 02-11-2017 00:00:00 7.76917 C 32.9583 %
307 03-11-2017 00:00:00 6.735 C 45.5833 %
308 04-11-2017 00:00:00 7.89167 C 53.2917 %
309 05-11-2017 00:00:00 8.26167 C 46.6500 %
310 06-11-2017 00:00:00 5.14 C 33.5917 %
311 07-11-2017 00:00:00 4.24333 C 45.0833 %
312 08-11-2017 00:00:00 6.0575 C 55.0333 %
313 09-11-2017 00:00:00 7.38917 C 46.1583 %
314 10-11-2017 00:00:00 6.65917 C 26.9667 %
315 11-11-2017 00:00:00 5.63583 C 40.7000 %
316 12-11-2017 00:00:00 3.91583 C 58.4500 %
317 13-11-2017 00:00:00 4.73833 C 41.6917 %
318 14-11-2017 00:00:00 3.73417 C 47.8500 %
319 15-11-2017 00:00:00 6.5375 C 27.1083 %
320 16-11-2017 00:00:00 4.27833 C 39.8500 %
321 17-11-2017 00:00:00 5.2975 C 48.8250 %
322 18-11-2017 00:00:00 2.87083 C 39.8833 %
323 19-11-2017 00:00:00 4.78583 C 32.4167 %
324 20-11-2017 00:00:00 4.46917 C 31.8667 %
325 21-11-2017 00:00:00 8.65667 C 28.5833 %
Sensor: Nr:Datum:Temp:Feuchte:
Aussen-T/F 326 22-11-2017 00:00:00 7.285 C 30.5250 %
327 23-11-2017 00:00:00 8.5175 C 46.0583 %
328 24-11-2017 00:00:00 9.68 C 41.3083 %
329 25-11-2017 00:00:00 4.5475 C 53.6583 %
330 26-11-2017 00:00:00 2.92583 C 28.8917 %
331 27-11-2017 00:00:00 4.8625 C 21.2917 %
332 28-11-2017 00:00:00 3.22667 C 51.1000 %
333 29-11-2017 00:00:00 2.265 C 55.6667 %
334 30-11-2017 00:00:00 1.60417 C 52.1417 %
335 01-12-2017 00:00:00 -0.2175 C 65.1167 %
336 02-12-2017 00:00:00 0.44833 C 41.3833 %
337 03-12-2017 00:00:00 -0.00667 C 31.2250 %
338 04-12-2017 00:00:00 2.29 C 46.3167 %
339 05-12-2017 00:00:00 3.6025 C 38.3333 %
340 06-12-2017 00:00:00 5.19833 C 24.6583 %
341 07-12-2017 00:00:00 4.21333 C 22.9083 %
342 08-12-2017 00:00:00 2.61083 C 31.9250 %
343 09-12-2017 00:00:00 0.24417 C 20.0083 %
344 10-12-2017 00:00:00 1.39167 C 28.5667 %
345 11-12-2017 00:00:00 4.91083 C 48.9333 %
346 12-12-2017 00:00:00 2.8125 C 21.0417 %
347 13-12-2017 00:00:00 2.70083 C 32.0833 %
348 14-12-2017 00:00:00 3.58417 C 33.7083 %
349 15-12-2017 00:00:00 2.05167 C 59.1500 %
350 16-12-2017 00:00:00 2.14667 C 54.8167 %
Sensor: Nr:Datum:Temp:Feuchte:
Aussen-T/F 351 17-12-2017 00:00:00 2.22583 C 28.7000 %
352 18-12-2017 00:00:00 0.71333 C 56.1333 %
353 19-12-2017 00:00:00 2.67 C 67.9667 %
354 20-12-2017 00:00:00 4.95083 C 67.4833 %
355 21-12-2017 00:00:00 6.82667 C 61.0083 %
356 22-12-2017 00:00:00 8.10417 C 67.4917 %
357 23-12-2017 00:00:00 8.1975 C 39.8417 %
358 24-12-2017 00:00:00 8.37583 C 20.1083 %
359 25-12-2017 00:00:00 6.34167 C 20.0583 %
360 26-12-2017 00:00:00 3.55917 C 38.0083 %
361 27-12-2017 00:00:00 4.2 C 40.9333 %
362 28-12-2017 00:00:00 2.28083 C 30.6667 %
363 29-12-2017 00:00:00 1.6 C 29.8333 %
364 30-12-2017 00:00:00 6.22583 C 44.3250 %
365 31-12-2017 00:00:00 12.09667 C 23.3583 %
366 01-01-2018 00:00:00 7.035 C 28.9500 %
367 02-01-2018 00:00:00 5.395 C 28.4083 %
368 03-01-2018 00:00:00 7.40667 C 26.8250 %
369 04-01-2018 00:00:00 7.375 C 35.2167 %
370 05-01-2018 00:00:00 7.45583 C 34.5250 %
371 06-01-2018 00:00:00 5.4075 C 71.1333 %
372 07-01-2018 00:00:00 4.365 C 39.4167 %
373 08-01-2018 00:00:00 3.86417 C 21.1167 %
374 09-01-2018 00:00:00 4.01083 C 35.8167 %
375 10-01-2018 00:00:00 5.88833 C 39.9000 %
Sensor: Nr:Datum:Temp:Feuchte:
Aussen-T/F 376 11-01-2018 00:00:00 6.29167 C 52.8750 %
377 12-01-2018 00:00:00 5.70083 C 50.0167 %
378 13-01-2018 00:00:00 4.70917 C 38.6750 %
379 14-01-2018 00:00:00 2.06917 C 25.5583 %
380 15-01-2018 00:00:00 2.675 C 35.7000 %
381 16-01-2018 00:00:00 5.00167 C 27.7500 %
382 17-01-2018 00:00:00 2.35 C 27.4500 %
383 18-01-2018 00:00:00 4.8775 C 25.4667 %
384 19-01-2018 00:00:00 2.92583 C 27.3750 %
385 20-01-2018 00:00:00 2.10833 C 38.1000 %
386 21-01-2018 00:00:00 1.73917 C 43.8167 %
387 22-01-2018 00:00:00 4.38583 C 45.1083 %
388 23-01-2018 00:00:00 6.65593 C 27.4831 %
389 24-01-2018 00:00:00 10.79316 C 24.5470 %
390 25-01-2018 00:00:00 9.13917 C 43.9750 %
391 26-01-2018 00:00:00 5.89167 C 56.7333 %
392 27-01-2018 00:00:00 4.26583 C 45.6667 %
393 28-01-2018 00:00:00 6.63917 C 22.5333 %
394 29-01-2018 00:00:00 9.275 C 22.7417 %
395 30-01-2018 00:00:00 4.25333 C 35.1167 %
396 31-01-2018 00:00:00 6.62917 C 32.6500 %
397 01-02-2018 00:00:00 2.0675 C 36.1083 %
398 02-02-2018 00:00:00 2.36417 C 31.6667 %
399 03-02-2018 00:00:00 2.65042 C 30.2269 %
400 04-02-2018 00:00:00 0.38667 C 29.6333 %
Sensor: Nr:Datum:Temp:Feuchte:
Aussen-T/F 401 05-02-2018 00:00:00 -0.98583 C 20.2500 %
402 06-02-2018 00:00:00 -1.55167 C 25.9583 %
403 07-02-2018 00:00:00 -0.79667 C 32.3833 %
404 08-02-2018 00:00:00 -3.34333 C 28.9667 %
405 09-02-2018 00:00:00 -2.8975 C 36.1833 %
406 10-02-2018 00:00:00 1.41833 C 24.0167 %
407 11-02-2018 00:00:00 2.22 C 26.3667 %
408 12-02-2018 00:00:00 1.25083 C 34.8917 %
409 13-02-2018 00:00:00 -1.44 C 29.8417 %
410 14-02-2018 00:00:00 -3.14333 C 28.8667 %
411 15-02-2018 00:00:00 0.80417 C 40.6583 %
412 16-02-2018 00:00:00 0.98667 C 60.1667 %
413 17-02-2018 00:00:00 -0.55 C 48.8833 %
414 18-02-2018 00:00:00 -2.16917 C 38.4250 %
415 19-02-2018 00:00:00 0.37083 C 35.6500 %
416 20-02-2018 00:00:00 -0.54083 C 33.3417 %
417 21-02-2018 00:00:00 -0.04917 C 22.5333 %
418 22-02-2018 00:00:00 -1.265 C 21.2167 %
419 23-02-2018 00:00:00 -2.0175 C 20.0000 %
420 24-02-2018 00:00:00 -2.72667 C 20.0000 %
421 25-02-2018 00:00:00 -3.74417 C 20.0000 %
422 26-02-2018 00:00:00 -5.06167 C 20.0000 %
423 27-02-2018 00:00:00 -7.2225 C 20.3500 %
424 28-02-2018 00:00:00 -7.98333 C 20.0000 %
425 01-03-2018 00:00:00 -3.74917 C 20.0000 %
Sensor: Nr:Datum:Temp:Feuchte:
Aussen-T/F 426 02-03-2018 00:00:00 -2.59083 C 20.0917 %
427 03-03-2018 00:00:00 -0.72083 C 28.3583 %
428 04-03-2018 00:00:00 3.2 C 37.8833 %
429 05-03-2018 00:00:00 5.22833 C 42.3583 %
430 06-03-2018 00:00:00 4.25 C 40.7750 %
431 07-03-2018 00:00:00 4.89167 C 43.0333 %
432 08-03-2018 00:00:00 5.66417 C 23.5833 %
433 09-03-2018 00:00:00 4.83667 C 41.9500 %
434 10-03-2018 00:00:00 9.51333 C 45.7833 %
435 11-03-2018 00:00:00 9.60833 C 40.1667 %
436 12-03-2018 00:00:00 9.04083 C 37.0250 %
437 13-03-2018 00:00:00 6.84083 C 24.1083 %
438 14-03-2018 00:00:00 6.32917 C 26.1667 %
439 15-03-2018 00:00:00 5.73833 C 33.0750 %
440 16-03-2018 00:00:00 7.00917 C 47.9667 %
441 17-03-2018 00:00:00 -0.93917 C 20.2583 %
442 18-03-2018 00:00:00 -2.1675 C 20.0000 %
443 19-03-2018 00:00:00 -0.63417 C 20.0000 %
444 20-03-2018 00:00:00 -0.4175 C 20.0167 %
445 21-03-2018 00:00:00 0.5225 C 24.8500 %
446 22-03-2018 00:00:00 2.45417 C 30.2000 %
447 23-03-2018 00:00:00 5.83583 C 38.3250 %
448 24-03-2018 00:00:00 4.74917 C 35.3167 %
449 25-03-2018 00:00:00 4.60522 C 30.4870 %
450 26-03-2018 00:00:00 7.34167 C 20.0250 %
Sensor: Nr:Datum:Temp:Feuchte:
Aussen-T/F 451 27-03-2018 00:00:00 5.52083 C 29.7083 %
452 28-03-2018 00:00:00 8.02667 C 36.4167 %
453 29-03-2018 00:00:00 6.93667 C 20.9833 %
454 30-03-2018 00:00:00 6.38833 C 34.0000 %
455 31-03-2018 00:00:00 7.84583 C 39.4917 %
456 01-04-2018 00:00:00 7.26083 C 20.4250 %
457 02-04-2018 00:00:00 8.7875 C 27.6500 %
458 03-04-2018 00:00:00 13.26583 C 20.0000 %
459 04-04-2018 00:00:00 10.6625 C 24.3500 %
460 05-04-2018 00:00:00 7.485 C 30.3417 %
461 06-04-2018 00:00:00 6.66833 C 35.5583 %
462 07-04-2018 00:00:00 12.16083 C 22.7583 %
463 08-04-2018 00:00:00 14.75333 C 22.3333 %
464 09-04-2018 00:00:00 13.84583 C 24.6917 %
465 10-04-2018 00:00:00 12.68 C 28.0833 %
466 11-04-2018 00:00:00 11.99333 C 34.9833 %
467 12-04-2018 00:00:00 13.34833 C 37.0500 %
468 13-04-2018 00:00:00 9.9075 C 32.0833 %
469 14-04-2018 00:00:00 12.74 C 36.2167 %
470 15-04-2018 00:00:00 14.41667 C 27.2750 %
471 16-04-2018 00:00:00 13.76083 C 31.1917 %
472 17-04-2018 00:00:00 14.02167 C 29.2083 %
473 18-04-2018 00:00:00 15.74583 C 26.0333 %
474 19-04-2018 00:00:00 17.22083 C 26.6000 %
475 20-04-2018 00:00:00 17.00083 C 24.1667 %
Sensor: Nr:Datum:Temp:Feuchte:
Aussen-T/F 476 21-04-2018 00:00:00 18.43667 C 23.5750 %
477 22-04-2018 00:00:00 18.55417 C 25.1083 %
478 23-04-2018 00:00:00 18.66417 C 20.2833 %
479 24-04-2018 00:00:00 14.27333 C 24.2167 %
480 25-04-2018 00:00:00 13.4125 C 21.6750 %
481 26-04-2018 00:00:00 11.21 C 20.0000 %
482 27-04-2018 00:00:00 12.55083 C 22.6167 %
483 28-04-2018 00:00:00 12.6075 C 23.1000 %
484 29-04-2018 00:00:00 14.48167 C 29.9583 %
485 30-04-2018 00:00:00 13.82167 C 24.6083 %
486 01-05-2018 00:00:00 9.82667 C 20.0500 %
487 02-05-2018 00:00:00 9.81083 C 27.0250 %
488 03-05-2018 00:00:00 12.9575 C 23.3250 %
489 04-05-2018 00:00:00 13.49833 C 21.9583 %
490 05-05-2018 00:00:00 15.83583 C 20.0667 %
491 06-05-2018 00:00:00 17.25 C 20.1167 %
492 07-05-2018 00:00:00 17.88167 C 21.1000 %
493 08-05-2018 00:00:00 18.43583 C 22.6667 %
494 09-05-2018 00:00:00 17.19333 C 22.2583 %
495 10-05-2018 00:00:00 14.13917 C 25.9500 %
496 11-05-2018 00:00:00 14.92083 C 27.9167 %
497 12-05-2018 00:00:00 17.0825 C 28.2750 %
498 13-05-2018 00:00:00 14.3425 C 37.0500 %
499 14-05-2018 00:00:00 17.16333 C 35.6750 %
500 15-05-2018 00:00:00 16.0375 C 27.9417 %
Sensor: Nr:Datum:Temp:Feuchte:
Aussen-T/F 501 16-05-2018 00:00:00 15.7475 C 27.4000 %
502 17-05-2018 00:00:00 14.55667 C 23.4833 %
503 18-05-2018 00:00:00 13.17083 C 21.1083 %
504 19-05-2018 00:00:00 13.845 C 23.5250 %
505 20-05-2018 00:00:00 14.06917 C 31.8333 %
506 21-05-2018 00:00:00 17.55333 C 27.4333 %
507 22-05-2018 00:00:00 17.09833 C 29.9833 %
508 23-05-2018 00:00:00 17.23083 C 36.1833 %
509 24-05-2018 00:00:00 17.22083 C 27.4917 %
510 25-05-2018 00:00:00 20.19417 C 26.8083 %
511 26-05-2018 00:00:00 21.1325 C 26.3667 %
512 27-05-2018 00:00:00 20.4375 C 27.6917 %
513 28-05-2018 00:00:00 21.70917 C 33.5833 %
514 29-05-2018 00:00:00 20.88333 C 27.1500 %
515 30-05-2018 00:00:00 21.6725 C 28.2333 %
516 31-05-2018 00:00:00 23.08167 C 20.2750 %
517 01-06-2018 00:00:00 19.3725 C 29.3667 %
518 02-06-2018 00:00:00 19.64917 C 23.6750 %
519 03-06-2018 00:00:00 20.04167 C 24.8250 %
520 04-06-2018 00:00:00 21.5125 C 24.5417 %
521 05-06-2018 00:00:00 21.2475 C 22.2500 %
522 06-06-2018 00:00:00 21.6775 C 24.0000 %
523 07-06-2018 00:00:00 21.58667 C 22.6167 %
524 08-06-2018 00:00:00 21.40167 C 24.3000 %
525 09-06-2018 00:00:00 22.3959 C 23.5984 %
Sensor: Nr:Datum:Temp:Feuchte:
Aussen-T/F 526 10-06-2018 00:00:00 21.64333 C 33.3000 %
527 11-06-2018 00:00:00 19.07083 C 41.7083 %
528 12-06-2018 00:00:00 16.44167 C 37.5250 %
529 13-06-2018 00:00:00 15.1 C 22.7000 %
530 14-06-2018 00:00:00 15.48083 C 30.2917 %
531 15-06-2018 00:00:00 17.9025 C 35.7250 %
532 16-06-2018 00:00:00 20.2775 C 26.1583 %
533 17-06-2018 00:00:00 18.42583 C 22.8083 %
534 18-06-2018 00:00:00 18.235 C 21.9750 %
535 19-06-2018 00:00:00 19.13333 C 25.5583 %
536 20-06-2018 00:00:00 23.4825 C 24.4667 %
537 21-06-2018 00:00:00 18.58 C 22.6500 %
538 22-06-2018 00:00:00 14.12167 C 20.0000 %
539 23-06-2018 00:00:00 14.19167 C 21.2750 %
540 24-06-2018 00:00:00 16.46667 C 22.7833 %
541 25-06-2018 00:00:00 17.57167 C 21.5583 %
542 26-06-2018 00:00:00 18.34083 C 24.8583 %
543 27-06-2018 00:00:00 19.81083 C 24.3333 %
544 28-06-2018 00:00:00 21.28417 C 20.6000 %
545 29-06-2018 00:00:00 24.82417 C 20.0000 %
546 30-06-2018 00:00:00 22.8375 C 20.4583 %
547 01-07-2018 00:00:00 21.52333 C 20.0000 %
548 02-07-2018 00:00:00 21.06583 C 20.0000 %
549 03-07-2018 00:00:00 21.34917 C 20.0000 %
550 04-07-2018 00:00:00 19.00917 C 27.2667 %
Sensor: Nr:Datum:Temp:Feuchte:
Aussen-T/F 551 05-07-2018 00:00:00 19.70667 C 33.6083 %
552 06-07-2018 00:00:00 20.57333 C 25.0417 %
553 07-07-2018 00:00:00 21.3521 C 23.5630 %
554 08-07-2018 00:00:00 20.38417 C 21.0583 %
555 09-07-2018 00:00:00 20.71083 C 21.4167 %
556 10-07-2018 00:00:00 17.5975 C 22.4000 %
557 11-07-2018 00:00:00 16.2875 C 33.6667 %
558 12-07-2018 00:00:00 19.71583 C 32.5000 %
559 13-07-2018 00:00:00 20.13 C 24.9667 %
560 14-07-2018 00:00:00 22.01333 C 24.7500 %
561 15-07-2018 00:00:00 22.10833 C 22.6333 %
562 16-07-2018 00:00:00 23.10667 C 21.7167 %
563 17-07-2018 00:00:00 21.59583 C 20.3583 %
564 18-07-2018 00:00:00 20.9475 C 22.7500 %
565 19-07-2018 00:00:00 21.47667 C 21.5833 %
566 20-07-2018 00:00:00 21.81583 C 20.1917 %
567 21-07-2018 00:00:00 20.94083 C 22.6750 %
568 22-07-2018 00:00:00 22.115 C 25.1500 %
569 23-07-2018 00:00:00 22.98917 C 21.2167 %
570 24-07-2018 00:00:00 24.11417 C 22.5833 %
571 25-07-2018 00:00:00 25.90417 C 20.1583 %
572 26-07-2018 00:00:00 27.54333 C 20.0167 %
573 27-07-2018 00:00:00 26.46167 C 20.0000 %
574 28-07-2018 00:00:00 22.24 C 22.3250 %
575 29-07-2018 00:00:00 23.87667 C 23.3500 %
Sensor: Nr:Datum:Temp:Feuchte:
Aussen-T/F 576 30-07-2018 00:00:00 24.435 C 20.3250 %
577 31-07-2018 00:00:00 25.8025 C 21.1500 %
578 01-08-2018 00:00:00 20.68583 C 32.5500 %
579 02-08-2018 00:00:00 24.12 C 31.7333 %
580 03-08-2018 00:00:00 26.79583 C 20.9083 %
581 04-08-2018 00:00:00 26.84 C 20.0667 %
582 05-08-2018 00:00:00 25.5025 C 20.1667 %
583 06-08-2018 00:00:00 24.4075 C 20.1500 %
584 07-08-2018 00:00:00 26.99333 C 20.0000 %
585 08-08-2018 00:00:00 25.83667 C 20.0000 %
586 09-08-2018 00:00:00 20.8725 C 26.6583 %
587 10-08-2018 00:00:00 18.73667 C 20.8917 %
588 11-08-2018 00:00:00 18.76667 C 20.0000 %
589 12-08-2018 00:00:00 18.38667 C 21.9833 %
590 13-08-2018 00:00:00 17.82083 C 28.9750 %
591 14-08-2018 00:00:00 18.755 C 28.1167 %
592 15-08-2018 00:00:00 19.59583 C 29.0833 %
593 16-08-2018 00:00:00 20.84333 C 28.0000 %
594 17-08-2018 00:00:00 20.11583 C 22.3500 %
595 18-08-2018 00:00:00 19.2675 C 26.3417 %
596 19-08-2018 00:00:00 20.68667 C 23.5250 %
597 20-08-2018 00:00:00 21.20333 C 20.6833 %
598 21-08-2018 00:00:00 22.2425 C 24.3417 %
599 22-08-2018 00:00:00 23.51417 C 22.7667 %
600 23-08-2018 00:00:00 23.22 C 23.0167 %
Sensor: Nr:Datum:Temp:Feuchte:
Aussen-T/F 601 24-08-2018 00:00:00 19.31833 C 20.6583 %
602 25-08-2018 00:00:00 14.65417 C 21.6083 %
603 26-08-2018 00:00:00 13.95083 C 28.0000 %
604 27-08-2018 00:00:00 18.20917 C 20.3667 %
605 28-08-2018 00:00:00 18.39833 C 20.7167 %
606 29-08-2018 00:00:00 17.005 C 30.8917 %
607 30-08-2018 00:00:00 17.4125 C 25.9167 %
608 31-08-2018 00:00:00 15.33167 C 23.6000 %
609 01-09-2018 00:00:00 14.445 C 26.6667 %
610 02-09-2018 00:00:00 14.24833 C 24.8000 %
611 03-09-2018 00:00:00 18.13417 C 22.9917 %
612 04-09-2018 00:00:00 20.0425 C 27.0167 %
613 05-09-2018 00:00:00 20.69 C 25.3083 %
614 06-09-2018 00:00:00 18.0925 C 32.7583 %
615 07-09-2018 00:00:00 15.6675 C 33.8500 %
616 08-09-2018 00:00:00 13.5425 C 30.5333 %
617 09-09-2018 00:00:00 16.80833 C 23.2500 %
618 10-09-2018 00:00:00 17.5025 C 23.9000 %
619 11-09-2018 00:00:00 18.86667 C 26.0333 %
620 12-09-2018 00:00:00 19.03167 C 24.0083 %
621 13-09-2018 00:00:00 16.5775 C 25.7417 %
622 14-09-2018 00:00:00 17.1375 C 25.2000 %
623 15-09-2018 00:00:00 15.17 C 21.0833 %
624 16-09-2018 00:00:00 14.51 C 27.7833 %
625 17-09-2018 00:00:00 16.24583 C 25.3583 %
Sensor: Nr:Datum:Temp:Feuchte:
Aussen-T/F 626 18-09-2018 00:00:00 18.72833 C 26.0000 %
627 19-09-2018 00:00:00 20.545 C 25.3250 %
628 20-09-2018 00:00:00 19.08833 C 26.8417 %
629 21-09-2018 00:00:00 15.91167 C 24.5750 %
630 22-09-2018 00:00:00 12.6825 C 25.6333 %
631 23-09-2018 00:00:00 12.18083 C 47.2250 %
632 24-09-2018 00:00:00 9.66 C 36.3583 %
633 25-09-2018 00:00:00 8.06417 C 42.7083 %
634 26-09-2018 00:00:00 8.5625 C 35.2583 %
635 27-09-2018 00:00:00 10.55833 C 35.5667 %
636 28-09-2018 00:00:00 9.67833 C 43.7167 %
637 29-09-2018 00:00:00 7.75083 C 41.1250 %
638 30-09-2018 00:00:00 7.2475 C 35.9250 %
639 01-10-2018 00:00:00 9.41583 C 29.7833 %
640 02-10-2018 00:00:00 8.87917 C 33.7167 %
641 03-10-2018 00:00:00 11.93917 C 34.0750 %
642 04-10-2018 00:00:00 9.37167 C 38.3000 %
643 05-10-2018 00:00:00 10.05917 C 42.4917 %
644 06-10-2018 00:00:00 12.08583 C 44.5417 %
645 07-10-2018 00:00:00 12.625 C 37.2750 %
646 08-10-2018 00:00:00 9.9775 C 39.4833 %
647 09-10-2018 00:00:00 11.14583 C 44.1500 %
648 10-10-2018 00:00:00 12.71667 C 45.8500 %
649 11-10-2018 00:00:00 13.6775 C 40.8667 %
650 12-10-2018 00:00:00 15.05417 C 38.8667 %
Sensor: Nr:Datum:Temp:Feuchte:
Aussen-T/F 651 13-10-2018 00:00:00 14.68833 C 38.8250 %
652 14-10-2018 00:00:00 13.92083 C 36.1000 %
653 15-10-2018 00:00:00 12.87417 C 37.7167 %
654 16-10-2018 00:00:00 12.0325 C 38.6083 %
655 17-10-2018 00:00:00 12.01333 C 41.5083 %
656 18-10-2018 00:00:00 13.73917 C 38.0333 %
657 19-10-2018 00:00:00 11.66417 C 37.7167 %
658 20-10-2018 00:00:00 10.57167 C 36.9583 %
659 21-10-2018 00:00:00 6.7725 C 44.7500 %
660 22-10-2018 00:00:00 7.16833 C 43.7083 %
661 23-10-2018 00:00:00 8.68 C 39.8083 %
662 24-10-2018 00:00:00 13.58167 C 33.8333 %
663 25-10-2018 00:00:00 12.74667 C 31.1083 %
664 26-10-2018 00:00:00 9.95417 C 28.9917 %
665 27-10-2018 00:00:00 5.7925 C 48.4000 %
666 28-10-2018 00:00:00 5.2 C 33.7840 %
667 29-10-2018 00:00:00 5.97083 C 33.6667 %
668 30-10-2018 00:00:00 5.80583 C 46.3667 %
669 31-10-2018 00:00:00 6.87167 C 39.3333 %
670 01-11-2018 00:00:00 5.49083 C 58.1333 %
671 02-11-2018 00:00:00 8.22333 C 53.4750 %
672 03-11-2018 00:00:00 3.10583 C 60.6667 %
673 04-11-2018 00:00:00 6.64167 C 47.4000 %
674 05-11-2018 00:00:00 9.7725 C 45.3417 %
675 06-11-2018 00:00:00 7.78167 C 57.6917 %
Sensor: Nr:Datum:Temp:Feuchte:
Aussen-T/F 676 07-11-2018 00:00:00 8.4 C 54.3917 %
677 08-11-2018 00:00:00 9.7 C 41.1583 %
678 09-11-2018 00:00:00 8.83167 C 49.0500 %
679 10-11-2018 00:00:00 11.32 C 42.0250 %
680 11-11-2018 00:00:00 11.46583 C 47.7500 %
681 12-11-2018 00:00:00 13.07917 C 44.0417 %
682 13-11-2018 00:00:00 9.75583 C 50.0167 %
683 14-11-2018 00:00:00 5.56917 C 61.4000 %
684 15-11-2018 00:00:00 6.72833 C 38.5000 %
685 16-11-2018 00:00:00 5.12667 C 41.4000 %
686 17-11-2018 00:00:00 1.785 C 48.8667 %
687 18-11-2018 00:00:00 0.80333 C 30.7417 %
688 19-11-2018 00:00:00 2.95833 C 26.3167 %
689 20-11-2018 00:00:00 2.95167 C 25.6167 %
690 21-11-2018 00:00:00 1.93 C 37.9750 %
691 22-11-2018 00:00:00 2.22833 C 39.2750 %
692 23-11-2018 00:00:00 -0.8425 C 54.2583 %
693 24-11-2018 00:00:00 4.05833 C 58.0917 %
694 25-11-2018 00:00:00 5.29 C 56.7917 %
695 26-11-2018 00:00:00 6.09333 C 35.8583 %
696 27-11-2018 00:00:00 3.6075 C 30.9583 %
697 28-11-2018 00:00:00 2.97583 C 45.6917 %
698 29-11-2018 00:00:00 4.98333 C 47.6917 %
699 30-11-2018 00:00:00 6.67167 C 48.6583 %
700 01-12-2018 00:00:00 6.67417 C 47.9750 %
Sensor: Nr:Datum:Temp:Feuchte:
Aussen-T/F 701 02-12-2018 00:00:00 10.59167 C 45.4750 %
702 03-12-2018 00:00:00 11.02333 C 51.1333 %
703 04-12-2018 00:00:00 5.62 C 45.3833 %
704 05-12-2018 00:00:00 3.15546 C 56.8487 %
705 06-12-2018 00:00:00 9.21333 C 47.7750 %
706 07-12-2018 00:00:00 10.71583 C 33.9000 %
707 08-12-2018 00:00:00 7.28083 C 37.2333 %
708 09-12-2018 00:00:00 7.285 C 37.6917 %
709 10-12-2018 00:00:00 3.9825 C 44.3833 %
710 11-12-2018 00:00:00 2.87417 C 51.3500 %
711 12-12-2018 00:00:00 2.0375 C 58.1583 %
712 13-12-2018 00:00:00 0.49 C 37.0417 %
713 14-12-2018 00:00:00 0.48 C 20.9833 %
714 15-12-2018 00:00:00 -0.09083 C 24.2083 %
715 16-12-2018 00:00:00 0.045 C 43.8833 %
716 17-12-2018 00:00:00 3.4775 C 51.8333 %
717 18-12-2018 00:00:00 4.1675 C 41.5083 %
718 19-12-2018 00:00:00 5.75 C 37.3000 %
719 20-12-2018 00:00:00 6.87083 C 39.0583 %
720 21-12-2018 00:00:00 10.1725 C 34.4750 %
721 22-12-2018 00:00:00 9.26167 C 35.0083 %
722 23-12-2018 00:00:00 7.89333 C 46.8500 %
723 24-12-2018 00:00:00 4.10333 C 44.5000 %
724 25-12-2018 00:00:00 1.0625 C 49.8500 %
725 26-12-2018 00:00:00 -1.61083 C 52.7667 %
Sensor: Nr:Datum:Temp:Feuchte:
Aussen-T/F 726 27-12-2018 00:00:00 -0.68583 C 57.2917 %
727 28-12-2018 00:00:00 -0.61667 C 51.7667 %
728 29-12-2018 00:00:00 2.0175 C 45.4833 %
729 30-12-2018 00:00:00 6.73917 C 37.6417 %
730 31-12-2018 00:00:00 6.84917 C 56.5417 %
731 01-01-2019 00:00:00 6.345 C 45.5833 %
732 02-01-2019 00:00:00 2.72417 C 34.2083 %
733 03-01-2019 00:00:00 1.28167 C 47.5833 %
734 04-01-2019 00:00:00 2.41333 C 45.7833 %
735 05-01-2019 00:00:00 5.14417 C 47.4583 %
736 06-01-2019 00:00:00 5.0725 C 44.3083 %
737 07-01-2019 00:00:00 4.8875 C 41.5500 %
738 08-01-2019 00:00:00 5.74917 C 36.7000 %
739 09-01-2019 00:00:00 3.05083 C 34.6917 %
740 10-01-2019 00:00:00 1.36 C 32.5417 %
741 11-01-2019 00:00:00 2.05417 C 54.0417 %
742 12-01-2019 00:00:00 5.01833 C 46.3583 %
743 13-01-2019 00:00:00 6.9225 C 47.7417 %
744 14-01-2019 00:00:00 4.06833 C 43.5667 %
745 15-01-2019 00:00:00 4.06833 C 40.0333 %
746 16-01-2019 00:00:00 4.52583 C 35.3417 %
747 17-01-2019 00:00:00 4.27167 C 37.9583 %
748 18-01-2019 00:00:00 -0.2025 C 49.3250 %
749 19-01-2019 00:00:00 -3.87667 C 48.1333 %
750 20-01-2019 00:00:00 -6.33 C 47.2250 %
Sensor: Nr:Datum:Temp:Feuchte:
Aussen-T/F 751 21-01-2019 00:00:00 -7.505 C 46.8917 %
752 22-01-2019 00:00:00 -5.97917 C 44.1750 %
753 23-01-2019 00:00:00 -2.435 C 39.5667 %
754 24-01-2019 00:00:00 -2.72417 C 26.7667 %
755 25-01-2019 00:00:00 -0.50917 C 39.3333 %
756 26-01-2019 00:00:00 3.62167 C 45.9417 %
757 27-01-2019 00:00:00 4.94833 C 43.1917 %
758 28-01-2019 00:00:00 2.2025 C 45.2417 %
759 29-01-2019 00:00:00 0.865 C 44.1667 %
760 30-01-2019 00:00:00 -0.46833 C 49.8250 %
761 31-01-2019 00:00:00 -1.03333 C 52.2750 %
762 01-02-2019 00:00:00 0.72167 C 56.8333 %
763 02-02-2019 00:00:00 1.59587 C 62.5950 %
764 03-02-2019 00:00:00 1.86583 C 40.0750 %
765 04-02-2019 00:00:00 0.99417 C 40.5833 %
766 05-02-2019 00:00:00 3.66167 C 30.5917 %
767 06-02-2019 00:00:00 0.09417 C 46.8417 %
768 07-02-2019 00:00:00 4.26083 C 38.9917 %
769 08-02-2019 00:00:00 6.77417 C 31.6250 %
770 09-02-2019 00:00:00 8.02083 C 28.8667 %
771 10-02-2019 00:00:00 7.15083 C 39.6167 %
772 11-02-2019 00:00:00 4.03667 C 38.3917 %
773 12-02-2019 00:00:00 3.01917 C 38.2083 %
774 13-02-2019 00:00:00 0.96333 C 46.8167 %
775 14-02-2019 00:00:00 -0.46667 C 51.0250 %
Sensor: Nr:Datum:Temp:Feuchte:
Aussen-T/F 776 15-02-2019 00:00:00 0.9925 C 45.0667 %
777 16-02-2019 00:00:00 1.9325 C 47.3750 %
778 17-02-2019 00:00:00 2.17333 C 49.1333 %
779 18-02-2019 00:00:00 2.31167 C 43.0500 %
780 19-02-2019 00:00:00 4.89 C 40.9750 %
781 20-02-2019 00:00:00 3.7725 C 45.5000 %
782 21-02-2019 00:00:00 5.655 C 46.3667 %
783 22-02-2019 00:00:00 9.27167 C 39.5167 %
784 23-02-2019 00:00:00 4.58167 C 33.2583 %
785 24-02-2019 00:00:00 2.29833 C 32.9417 %
786 25-02-2019 00:00:00 3.65667 C 31.8250 %
787 26-02-2019 00:00:00 4.75583 C 37.6333 %
788 27-02-2019 00:00:00 5.17417 C 38.9250 %
789 28-02-2019 00:00:00 8.185 C 29.8833 %
790 01-03-2019 00:00:00 7.515 C 43.8250 %
791 02-03-2019 00:00:00 8.29333 C 34.1417 %
792 03-03-2019 00:00:00 10.72417 C 28.1417 %
793 04-03-2019 00:00:00 9.1575 C 27.8167 %
794 05-03-2019 00:00:00 6.32167 C 30.8917 %
795 06-03-2019 00:00:00 9.5125 C 32.3667 %
796 07-03-2019 00:00:00 9.61917 C 28.3833 %
797 08-03-2019 00:00:00 7.73167 C 28.8250 %
798 09-03-2019 00:00:00 10.01667 C 26.3333 %
799 10-03-2019 00:00:00 9.11083 C 30.1417 %
800 11-03-2019 00:00:00 4.19667 C 30.2417 %
Sensor: Nr:Datum:Temp:Feuchte:
Aussen-T/F 801 12-03-2019 00:00:00 6.18083 C 27.8583 %
802 13-03-2019 00:00:00 5.6775 C 31.5250 %
803 14-03-2019 00:00:00 6.3325 C 38.0083 %
804 15-03-2019 00:00:00 9.61417 C 37.6917 %
805 16-03-2019 00:00:00 9.76833 C 35.9667 %
806 17-03-2019 00:00:00 8.19083 C 26.8333 %
807 18-03-2019 00:00:00 4.3225 C 36.6583 %
808 19-03-2019 00:00:00 3.115 C 40.3583 %
809 20-03-2019 00:00:00 4.81417 C 37.4250 %
810 21-03-2019 00:00:00 6.76333 C 35.7167 %
811 22-03-2019 00:00:00 8.43083 C 34.0750 %
812 23-03-2019 00:00:00 5.40167 C 40.0083 %
813 24-03-2019 00:00:00 5.90583 C 38.2167 %
814 25-03-2019 00:00:00 4.41583 C 37.7583 %
815 26-03-2019 00:00:00 6.33417 C 32.9583 %
816 27-03-2019 00:00:00 6.36583 C 35.3083 %
817 28-03-2019 00:00:00 6.955 C 36.2417 %
818 29-03-2019 00:00:00 8.44167 C 38.7750 %
819 30-03-2019 00:00:00 10.07583 C 34.1833 %
820 31-03-2019 00:00:00 9.90957 C 33.8174 %
821 01-04-2019 00:00:00 8.9475 C 32.5750 %
822 02-04-2019 00:00:00 10.5425 C 29.3083 %
823 03-04-2019 00:00:00 7.865 C 38.6750 %
824 04-04-2019 00:00:00 5.56833 C 48.7000 %
825 05-04-2019 00:00:00 5.95417 C 48.0167 %
Sensor: Nr:Datum:Temp:Feuchte:
Aussen-T/F 826 06-04-2019 00:00:00 9.88333 C 42.1917 %
827 07-04-2019 00:00:00 11.50833 C 36.8000 %
828 08-04-2019 00:00:00 12.34417 C 33.9167 %
829 09-04-2019 00:00:00 12.00333 C 40.7333 %
830 10-04-2019 00:00:00 10.585 C 23.8417 %
831 11-04-2019 00:00:00 6.52917 C 25.0583 %
832 12-04-2019 00:00:00 4.68167 C 20.0000 %
833 13-04-2019 00:00:00 3.585 C 24.4167 %
834 14-04-2019 00:00:00 5.23833 C 34.7917 %
835 15-04-2019 00:00:00 10.29167 C 25.8000 %
836 16-04-2019 00:00:00 10.91333 C 23.2000 %
837 17-04-2019 00:00:00 12.4 C 35.6083 %
838 18-04-2019 00:00:00 13.7675 C 28.5500 %
839 19-04-2019 00:00:00 14.94917 C 24.5083 %
840 20-04-2019 00:00:00 14.60167 C 27.5833 %
841 21-04-2019 00:00:00 15.24333 C 24.6417 %
842 22-04-2019 00:00:00 14.7825 C 27.5667 %
843 23-04-2019 00:00:00 15.12667 C 20.1083 %
844 24-04-2019 00:00:00 15.10083 C 30.7083 %
845 25-04-2019 00:00:00 13.2425 C 38.0667 %
846 26-04-2019 00:00:00 11.8 C 32.0000 %
847 27-04-2019 00:00:00 9.01583 C 40.3667 %
848 28-04-2019 00:00:00 8.43333 C 30.9750 %
849 29-04-2019 00:00:00 8.62417 C 38.4083 %
850 30-04-2019 00:00:00 13.94583 C 26.0833 %
Sensor: Nr:Datum:Temp:Feuchte:
Aussen-T/F 851 01-05-2019 00:00:00 13.03833 C 29.5000 %
852 02-05-2019 00:00:00 12.08333 C 31.3667 %
853 03-05-2019 00:00:00 11.20833 C 25.1500 %
854 04-05-2019 00:00:00 6.17583 C 33.4500 %
855 05-05-2019 00:00:00 6.66333 C 32.0417 %
856 06-05-2019 00:00:00 7.6075 C 30.6583 %
857 07-05-2019 00:00:00 9.645 C 28.6167 %
858 08-05-2019 00:00:00 9.105 C 38.9750 %
859 09-05-2019 00:00:00 11.085 C 36.9583 %
860 10-05-2019 00:00:00 12.44538 C 33.3866 %
861 11-05-2019 00:00:00 9.52833 C 47.9417 %
862 12-05-2019 00:00:00 9.4 C 31.3083 %
863 13-05-2019 00:00:00 9.985 C 30.9083 %
864 14-05-2019 00:00:00 9.66333 C 26.4333 %
865 15-05-2019 00:00:00 10.57083 C 24.3500 %
866 16-05-2019 00:00:00 10.61167 C 23.0917 %
867 17-05-2019 00:00:00 11.4775 C 39.7250 %
868 18-05-2019 00:00:00 14.67167 C 39.3500 %
869 19-05-2019 00:00:00 15.91083 C 38.3750 %
870 20-05-2019 00:00:00 13.655 C 37.8667 %
871 21-05-2019 00:00:00 11.88167 C 45.6167 %
872 22-05-2019 00:00:00 13.2875 C 33.7833 %
873 23-05-2019 00:00:00 15.22667 C 33.1417 %
874 24-05-2019 00:00:00 17.24 C 28.7500 %
875 25-05-2019 00:00:00 15.89917 C 22.8167 %
Sensor: Nr:Datum:Temp:Feuchte:
Aussen-T/F 876 26-05-2019 00:00:00 16.26667 C 29.2667 %
877 27-05-2019 00:00:00 14.66667 C 40.5417 %
878 28-05-2019 00:00:00 14.29917 C 38.6250 %
879 29-05-2019 00:00:00 15.28667 C 25.9000 %
880 30-05-2019 00:00:00 15.82833 C 28.8250 %
881 31-05-2019 00:00:00 19.45583 C 30.4167 %
882 01-06-2019 00:00:00 20.21917 C 30.3583 %
883 02-06-2019 00:00:00 22.16417 C 30.0500 %
884 03-06-2019 00:00:00 21.1475 C 27.1667 %
885 04-06-2019 00:00:00 21.80333 C 28.3333 %
886 05-06-2019 00:00:00 23.57917 C 22.7833 %
887 06-06-2019 00:00:00 16.14167 C 28.3667 %
888 07-06-2019 00:00:00 16.10083 C 29.5250 %
889 08-06-2019 00:00:00 16.40917 C 20.2667 %
890 09-06-2019 00:00:00 16.72333 C 27.7667 %
891 10-06-2019 00:00:00 19.705 C 23.4750 %
892 11-06-2019 00:00:00 17.38 C 32.4667 %
893 12-06-2019 00:00:00 16.405 C 33.2917 %
894 13-06-2019 00:00:00 16.27917 C 34.4333 %
895 14-06-2019 00:00:00 18.17 C 35.6583 %
896 15-06-2019 00:00:00 19.72583 C 33.0250 %
897 16-06-2019 00:00:00 19.94417 C 24.9167 %
898 17-06-2019 00:00:00 19.5125 C 29.1250 %
899 18-06-2019 00:00:00 22.02333 C 27.1333 %
900 19-06-2019 00:00:00 22.62583 C 27.6917 %
Sensor: Nr:Datum:Temp:Feuchte:
Aussen-T/F 901 20-06-2019 00:00:00 20 C 28.0167 %
902 21-06-2019 00:00:00 19.3425 C 27.3333 %
903 22-06-2019 00:00:00 19.82667 C 26.6167 %
904 23-06-2019 00:00:00 22.3125 C 27.3750 %
905 24-06-2019 00:00:00 24.96167 C 26.2167 %
906 25-06-2019 00:00:00 26.83333 C 24.5583 %
907 26-06-2019 00:00:00 27.635 C 23.0833 %
908 27-06-2019 00:00:00 25.18917 C 20.6083 %
909 28-06-2019 00:00:00 22.44833 C 23.4333 %
910 29-06-2019 00:00:00 24.38417 C 22.1750 %
911 30-06-2019 00:00:00 26.0575 C 22.2333 %
912 01-07-2019 00:00:00 23.3825 C 20.0000 %
913 02-07-2019 00:00:00 19.63333 C 21.8667 %
914 03-07-2019 00:00:00 18.14583 C 22.9833 %
915 04-07-2019 00:00:00 18.95917 C 21.7583 %
916 05-07-2019 00:00:00 21.28 C 20.0000 %
917 06-07-2019 00:00:00 21.86 C 21.2917 %
918 07-07-2019 00:00:00 17.9975 C 24.5833 %
919 08-07-2019 00:00:00 14.77583 C 24.3917 %
920 09-07-2019 00:00:00 15.65583 C 24.6667 %
921 10-07-2019 00:00:00 17.64083 C 24.2083 %
922 11-07-2019 00:00:00 17.65083 C 31.2583 %
923 12-07-2019 00:00:00 17.16583 C 43.6333 %
924 13-07-2019 00:00:00 17.9575 C 34.1250 %
925 14-07-2019 00:00:00 17.12917 C 26.6667 %
Sensor: Nr:Datum:Temp:Feuchte:
Aussen-T/F 926 15-07-2019 00:00:00 16.56667 C 21.0917 %
927 16-07-2019 00:00:00 16.26 C 28.0333 %
928 17-07-2019 00:00:00 17.56833 C 29.2083 %
929 18-07-2019 00:00:00 19.38333 C 28.1917 %
930 19-07-2019 00:00:00 20.12667 C 31.9750 %
931 20-07-2019 00:00:00 21.81667 C 30.3083 %
932 21-07-2019 00:00:00 22.37333 C 25.8833 %
933 22-07-2019 00:00:00 22.7225 C 26.2833 %
934 23-07-2019 00:00:00 25.34083 C 25.5333 %
935 24-07-2019 00:00:00 27.1975 C 24.2750 %
936 25-07-2019 00:00:00 28.90167 C 21.7333 %
937 26-07-2019 00:00:00 27.54417 C 21.2500 %
938 27-07-2019 00:00:00 23.4375 C 26.6833 %
939 28-07-2019 00:00:00 19.93083 C 38.1333 %
940 29-07-2019 00:00:00 21.45583 C 29.3333 %
941 30-07-2019 00:00:00 22.35833 C 26.7167 %
942 31-07-2019 00:00:00 21.48417 C 20.5333 %
943 01-08-2019 00:00:00 19.83417 C 22.9750 %
944 02-08-2019 00:00:00 20.8775 C 22.8500 %
945 03-08-2019 00:00:00 20.77167 C 24.6333 %
946 04-08-2019 00:00:00 21.00667 C 28.3000 %
947 05-08-2019 00:00:00 22.56833 C 24.9167 %
948 06-08-2019 00:00:00 20.0075 C 30.3333 %
949 07-08-2019 00:00:00 19.10167 C 41.3833 %
950 08-08-2019 00:00:00 20.55667 C 30.6417 %
Sensor: Nr:Datum:Temp:Feuchte:
Aussen-T/F 951 09-08-2019 00:00:00 19.73833 C 39.4583 %
952 10-08-2019 00:00:00 20.72917 C 37.6833 %
953 11-08-2019 00:00:00 17.03333 C 35.9000 %
954 12-08-2019 00:00:00 16.51583 C 38.9833 %
955 13-08-2019 00:00:00 16.10833 C 35.2833 %
956 14-08-2019 00:00:00 16.6875 C 34.0417 %
957 15-08-2019 00:00:00 17.20583 C 40.0250 %
958 16-08-2019 00:00:00 17.84 C 34.2250 %
959 17-08-2019 00:00:00 17.89333 C 38.0750 %
960 18-08-2019 00:00:00 19.71833 C 44.5000 %
961 19-08-2019 00:00:00 18.45167 C 33.8417 %
962 20-08-2019 00:00:00 15.91167 C 33.3250 %
963 21-08-2019 00:00:00 16.52917 C 33.4750 %
964 22-08-2019 00:00:00 17.12333 C 32.3667 %
965 23-08-2019 00:00:00 18.31667 C 31.5083 %
966 24-08-2019 00:00:00 19.36333 C 30.9833 %
967 25-08-2019 00:00:00 21.54583 C 29.8917 %
968 26-08-2019 00:00:00 22.17 C 33.4833 %
969 27-08-2019 00:00:00 22.70333 C 35.1667 %
970 28-08-2019 00:00:00 23.4425 C 30.4583 %
971 29-08-2019 00:00:00 22.20333 C 28.3583 %
972 30-08-2019 00:00:00 21.07 C 29.2583 %
973 31-08-2019 00:00:00 21.975 C 30.7583 %
974 01-09-2019 00:00:00 18.8525 C 26.8333 %
975 02-09-2019 00:00:00 15.49333 C 28.2000 %
Sensor: Nr:Datum:Temp:Feuchte:
Aussen-T/F 976 03-09-2019 00:00:00 15.72917 C 28.0833 %
977 04-09-2019 00:00:00 16.9525 C 33.9667 %
978 05-09-2019 00:00:00 15.59 C 26.2917 %
979 06-09-2019 00:00:00 13.58917 C 31.1917 %
980 07-09-2019 00:00:00 12.6975 C 39.5000 %
981 08-09-2019 00:00:00 12.7439 C 48.5935 %
982 09-09-2019 00:00:00 15.23733 C 38.6667 %
983 10-09-2019 00:00:00 12.20486 C 22.8264 %
984 11-09-2019 00:00:00 13.35556 C 20.8472 %
985 12-09-2019 00:00:00 19.325 C 20.0000 %
986 13-09-2019 00:00:00 17.86806 C 20.1111 %
987 14-09-2019 00:00:00 15.93333 C 22.4375 %
988 15-09-2019 00:00:00 15.65694 C 21.2778 %
989 16-09-2019 00:00:00 16.21389 C 20.0000 %
990 17-09-2019 00:00:00 15.87708 C 20.0000 %
991 18-09-2019 00:00:00 11.47361 C 20.7917 %
992 19-09-2019 00:00:00 10.53333 C 21.8194 %
993 20-09-2019 00:00:00 10.80486 C 20.8472 %
994 21-09-2019 00:00:00 12.45278 C 20.6597 %
995 22-09-2019 00:00:00 14.78542 C 20.7500 %
996 23-09-2019 00:00:00 16.6875 C 22.1528 %
997 24-09-2019 00:00:00 13.94306 C 26.6319 %
998 25-09-2019 00:00:00 15.31806 C 25.0417 %
999 26-09-2019 00:00:00 16.10903 C 26.0000 %
1000 27-09-2019 00:00:00 16.23333 C 23.7708 %
Sensor: Nr:Datum:Temp:Feuchte:
Aussen-T/F 1001 28-09-2019 00:00:00 15.40208 C 22.5833 %
1002 29-09-2019 00:00:00 16.05972 C 21.6597 %
1003 30-09-2019 00:00:00 15.48194 C 21.1319 %
1004 01-10-2019 00:00:00 15.84375 C 23.4931 %
1005 02-10-2019 00:00:00 12.57569 C 23.6111 %
1006 03-10-2019 00:00:00 9.35625 C 27.6944 %
1007 04-10-2019 00:00:00 10.03681 C 31.8403 %
1008 05-10-2019 00:00:00 10.32986 C 26.5903 %
1009 06-10-2019 00:00:00 7.85764 C 34.1250 %
1010 07-10-2019 00:00:00 9.80764 C 31.8819 %
1011 08-10-2019 00:00:00 12.35833 C 31.0694 %
1012 09-10-2019 00:00:00 11.56667 C 27.7431 %
1013 10-10-2019 00:00:00 11.49097 C 26.2153 %
1014 11-10-2019 00:00:00 12.41458 C 28.8194 %
1015 12-10-2019 00:00:00 13.21111 C 29.6875 %
1016 13-10-2019 00:00:00 16.35417 C 28.4722 %
1017 14-10-2019 00:00:00 15.8125 C 27.6528 %
1018 15-10-2019 00:00:00 13.94028 C 29.8611 %
1019 16-10-2019 00:00:00 12.42153 C 29.2917 %
1020 17-10-2019 00:00:00 14.32708 C 27.4167 %
1021 18-10-2019 00:00:00 12.3125 C 29.7292 %
1022 19-10-2019 00:00:00 12.78194 C 28.2083 %
1023 20-10-2019 00:00:00 13.0875 C 34.7778 %
1024 21-10-2019 00:00:00 13.30486 C 29.2014 %
1025 22-10-2019 00:00:00 11.45 C 27.8819 %
Sensor: Nr:Datum:Temp:Feuchte:
Aussen-T/F 1026 23-10-2019 00:00:00 10.68403 C 31.1181 %
1027 24-10-2019 00:00:00 13.85208 C 27.9236 %
1028 25-10-2019 00:00:00 13.1625 C 24.9444 %
1029 26-10-2019 00:00:00 12.72639 C 27.5417 %
1030 27-10-2019 00:00:00 9.68467 C 30.8733 %
1031 28-10-2019 00:00:00 5.91597 C 35.2014 %
1032 29-10-2019 00:00:00 6.21181 C 29.3264 %
1033 30-10-2019 00:00:00 2.93333 C 34.5347 %
1034 31-10-2019 00:00:00 1.41875 C 34.8333 %
1035 01-11-2019 00:00:00 5.44792 C 36.7292 %
1036 02-11-2019 00:00:00 12.8125 C 27.6458 %
1037 03-11-2019 00:00:00 11.45069 C 29.7639 %
1038 04-11-2019 00:00:00 9.88542 C 30.2153 %
1039 05-11-2019 00:00:00 9.25069 C 27.4306 %
1040 06-11-2019 00:00:00 8.33542 C 34.7014 %
1041 07-11-2019 00:00:00 7.30278 C 33.8333 %
1042 08-11-2019 00:00:00 4.29028 C 37.7153 %
1043 09-11-2019 00:00:00 4.26806 C 33.1111 %
1044 10-11-2019 00:00:00 2.51319 C 34.9861 %
1045 11-11-2019 00:00:00 4.2 C 27.4792 %
1046 12-11-2019 00:00:00 5.41667 C 25.4792 %
1047 13-11-2019 00:00:00 4.93472 C 22.9861 %
1048 14-11-2019 00:00:00 4.86042 C 26.9861 %
1049 15-11-2019 00:00:00 4.08472 C 26.3333 %
1050 16-11-2019 00:00:00 1.19444 C 38.8125 %
Sensor: Nr:Datum:Temp:Feuchte:
Aussen-T/F 1051 17-11-2019 00:00:00 2.39861 C 40.2708 %
1052 18-11-2019 00:00:00 3.51667 C 36.2847 %
1053 19-11-2019 00:00:00 3.06736 C 36.5833 %
1054 20-11-2019 00:00:00 0.75972 C 37.8403 %
1055 21-11-2019 00:00:00 1.18951 C 39.3846 %
1056 22-11-2019 00:00:00 3.65972 C 35.6806 %
1057 23-11-2019 00:00:00 4.64653 C 33.3889 %
1058 24-11-2019 00:00:00 1.99861 C 41.4722 %
1059 25-11-2019 00:00:00 4.16319 C 39.3681 %
1060 26-11-2019 00:00:00 7.75903 C 34.8472 %
1061 27-11-2019 00:00:00 9.72083 C 30.6875 %
1062 28-11-2019 00:00:00 10.55833 C 22.1319 %
1063 29-11-2019 00:00:00 5.75486 C 30.7639 %
1064 30-11-2019 00:00:00 0.48194 C 42.0972 %
1065 01-12-2019 00:00:00 1.14236 C 33.0139 %
1066 02-12-2019 00:00:00 1.20556 C 36.2986 %
1067 03-12-2019 00:00:00 3.97431 C 39.2292 %
1068 04-12-2019 00:00:00 0.41389 C 41.6111 %
1069 05-12-2019 00:00:00 -2.03194 C 42.0972 %
1070 06-12-2019 00:00:00 2.6125 C 34.4722 %
1071 07-12-2019 00:00:00 8.20694 C 27.7292 %
1072 08-12-2019 00:00:00 9.69931 C 24.2778 %
1073 09-12-2019 00:00:00 7.09444 C 23.9722 %
1074 10-12-2019 00:00:00 2.37361 C 34.0000 %
1075 11-12-2019 00:00:00 3.12569 C 39.3056 %
Sensor: Nr:Datum:Temp:Feuchte:
Aussen-T/F 1076 12-12-2019 00:00:00 2.64931 C 37.2500 %
1077 13-12-2019 00:00:00 3.25278 C 34.0069 %
1078 14-12-2019 00:00:00 6.22222 C 28.0625 %
1079 15-12-2019 00:00:00 7.24792 C 30.8958 %
1080 16-12-2019 00:00:00 7.47361 C 39.2986 %
1081 17-12-2019 00:00:00 9.69514 C 31.9653 %
1082 18-12-2019 00:00:00 6.95069 C 37.4792 %
1083 19-12-2019 00:00:00 4.60972 C 40.5417 %
1084 20-12-2019 00:00:00 6.87778 C 35.7847 %
1085 21-12-2019 00:00:00 6.42778 C 32.4306 %
1086 22-12-2019 00:00:00 7.57917 C 31.0556 %
1087 23-12-2019 00:00:00 7.34861 C 28.6111 %
1088 24-12-2019 00:00:00 7.20278 C 29.9097 %
1089 25-12-2019 00:00:00 6.91944 C 32.8333 %
1090 26-12-2019 00:00:00 4.25278 C 40.6250 %
1091 27-12-2019 00:00:00 4.41181 C 36.8819 %
1092 28-12-2019 00:00:00 -1.22431 C 42.5000 %
1093 29-12-2019 00:00:00 -2.07708 C 39.8819 %
1094 30-12-2019 00:00:00 -1.99931 C 39.1319 %
1095 31-12-2019 00:00:00 -0.41736 C 39.5556 %
Sensor: Nr:Datum:Temp:Feuchte:
G-T/H 1 01-01-2017 00:00:00 5.44917 C 64.1833 %
2 02-01-2017 00:00:00 5.875 C 67.6500 %
3 03-01-2017 00:00:00 6.26833 C 69.1333 %
4 04-01-2017 00:00:00 6.87333 C 70.5333 %
5 05-01-2017 00:00:00 6.42167 C 64.7417 %
6 06-01-2017 00:00:00 5.2175 C 62.1250 %
7 07-01-2017 00:00:00 5.225 C 61.2333 %
8 08-01-2017 00:00:00 5.37083 C 67.6667 %
9 09-01-2017 00:00:00 5.805 C 70.2583 %
10 10-01-2017 00:00:00 6.215 C 69.9833 %
11 11-01-2017 00:00:00 6.85417 C 73.1167 %
12 12-01-2017 00:00:00 7.36667 C 72.3333 %
13 13-01-2017 00:00:00 7.38917 C 68.9917 %
14 14-01-2017 00:00:00 6.96667 C 66.6000 %
15 15-01-2017 00:00:00 6.63083 C 66.1917 %
16 16-01-2017 00:00:00 5.80917 C 64.9167 %
17 17-01-2017 00:00:00 5.4625 C 65.3000 %
18 18-01-2017 00:00:00 5.16083 C 63.5417 %
19 19-01-2017 00:00:00 4.74667 C 62.7667 %
20 20-01-2017 00:00:00 4.44583 C 61.4250 %
21 21-01-2017 00:00:00 4.46917 C 61.4667 %
22 22-01-2017 00:00:00 6.90667 C 56.2500 %
23 23-01-2017 00:00:00 4.80167 C 59.9750 %
24 24-01-2017 00:00:00 4.74333 C 66.7000 %
25 25-01-2017 00:00:00 5.13697 C 66.5546 %
Sensor: Nr:Datum:Temp:Feuchte:
G-T/H 26 26-01-2017 00:00:00 4.95 C 66.4333 %
27 27-01-2017 00:00:00 4.87667 C 64.0167 %
28 28-01-2017 00:00:00 4.965 C 64.2417 %
29 29-01-2017 00:00:00 5.46167 C 67.2750 %
30 30-01-2017 00:00:00 6.3575 C 70.0750 %
31 31-01-2017 00:00:00 7.135 C 70.9417 %
32 01-02-2017 00:00:00 7.0975 C 69.4500 %
33 02-02-2017 00:00:00 7.63083 C 71.6000 %
34 03-02-2017 00:00:00 7.80583 C 71.7917 %
35 04-02-2017 00:00:00 7.86667 C 73.2833 %
36 05-02-2017 00:00:00 7.52167 C 72.1917 %
37 06-02-2017 00:00:00 7.44667 C 71.3500 %
38 07-02-2017 00:00:00 7.65917 C 69.1583 %
39 08-02-2017 00:00:00 7.745 C 67.0667 %
40 09-02-2017 00:00:00 6.61083 C 60.3750 %
41 10-02-2017 00:00:00 6.26583 C 62.6250 %
42 11-02-2017 00:00:00 6.50167 C 66.3417 %
43 12-02-2017 00:00:00 6.90333 C 69.8583 %
44 13-02-2017 00:00:00 6.77417 C 66.2250 %
45 14-02-2017 00:00:00 6.34667 C 63.3750 %
46 15-02-2017 00:00:00 6.06333 C 64.3167 %
47 16-02-2017 00:00:00 6.4425 C 67.4583 %
48 17-02-2017 00:00:00 7.16417 C 70.9167 %
49 18-02-2017 00:00:00 7.8825 C 71.6500 %
50 19-02-2017 00:00:00 6.91667 C 66.6917 %
Sensor: Nr:Datum:Temp:Feuchte:
G-T/H 51 20-02-2017 00:00:00 7.93417 C 71.2667 %
52 21-02-2017 00:00:00 9.10333 C 73.0000 %
53 22-02-2017 00:00:00 9.84667 C 73.5750 %
54 23-02-2017 00:00:00 10.02917 C 72.3500 %
55 24-02-2017 00:00:00 9.025 C 66.0583 %
56 25-02-2017 00:00:00 7.8125 C 64.1750 %
57 26-02-2017 00:00:00 8.2975 C 69.2667 %
58 27-02-2017 00:00:00 9.63917 C 70.5750 %
59 28-02-2017 00:00:00 9.33 C 66.9583 %
60 01-03-2017 00:00:00 8.60583 C 69.5417 %
61 02-03-2017 00:00:00 8.9175 C 65.6500 %
62 03-03-2017 00:00:00 8.58667 C 65.2583 %
63 04-03-2017 00:00:00 9.72083 C 67.1417 %
64 05-03-2017 00:00:00 9.9025 C 68.5167 %
65 06-03-2017 00:00:00 9.1775 C 69.4333 %
66 07-03-2017 00:00:00 8.97833 C 70.7333 %
67 08-03-2017 00:00:00 8.28333 C 70.1333 %
68 09-03-2017 00:00:00 9.54333 C 71.3083 %
69 10-03-2017 00:00:00 9.94 C 66.3417 %
70 11-03-2017 00:00:00 9.4 C 61.6667 %
71 12-03-2017 00:00:00 9.37083 C 56.6667 %
72 13-03-2017 00:00:00 9.06083 C 61.4333 %
73 14-03-2017 00:00:00 9.58917 C 65.5667 %
74 15-03-2017 00:00:00 10.38083 C 67.1833 %
75 16-03-2017 00:00:00 9.89833 C 64.6750 %
Sensor: Nr:Datum:Temp:Feuchte:
G-T/H 76 17-03-2017 00:00:00 9.92917 C 66.9833 %
77 18-03-2017 00:00:00 10.04833 C 66.3167 %
78 19-03-2017 00:00:00 10.80333 C 69.8417 %
79 20-03-2017 00:00:00 11.3975 C 70.0000 %
80 21-03-2017 00:00:00 11.28667 C 69.3000 %
81 22-03-2017 00:00:00 9.84 C 63.8000 %
82 23-03-2017 00:00:00 10.27083 C 66.0750 %
83 24-03-2017 00:00:00 10.7825 C 62.7500 %
84 25-03-2017 00:00:00 10.76167 C 57.7333 %
85 26-03-2017 00:00:00 10.54783 C 58.5826 %
86 27-03-2017 00:00:00 10.2775 C 50.5417 %
87 28-03-2017 00:00:00 11.49667 C 53.5167 %
88 29-03-2017 00:00:00 12.4025 C 60.0000 %
89 30-03-2017 00:00:00 13.8 C 58.8333 %
90 31-03-2017 00:00:00 13.9 C 55.5083 %
91 01-04-2017 00:00:00 13.5225 C 61.1333 %
92 02-04-2017 00:00:00 13.045 C 62.0500 %
93 03-04-2017 00:00:00 12.37917 C 61.7583 %
94 04-04-2017 00:00:00 11.70917 C 61.7250 %
95 05-04-2017 00:00:00 11.2225 C 60.3000 %
96 06-04-2017 00:00:00 11.25083 C 61.8833 %
97 07-04-2017 00:00:00 11.30833 C 61.5667 %
98 08-04-2017 00:00:00 12.10917 C 64.3167 %
99 09-04-2017 00:00:00 11.93083 C 63.3250 %
100 10-04-2017 00:00:00 12.2625 C 64.3417 %
Sensor: Nr:Datum:Temp:Feuchte:
G-T/H 101 11-04-2017 00:00:00 11.93333 C 61.3750 %
102 12-04-2017 00:00:00 11.73417 C 62.1250 %
103 13-04-2017 00:00:00 12.4775 C 62.8750 %
104 14-04-2017 00:00:00 12.10583 C 60.6583 %
105 15-04-2017 00:00:00 11.93917 C 62.9917 %
106 16-04-2017 00:00:00 11.1475 C 62.5750 %
107 17-04-2017 00:00:00 10.5075 C 62.2583 %
108 18-04-2017 00:00:00 9.84833 C 61.1750 %
109 19-04-2017 00:00:00 9.13917 C 59.2667 %
110 20-04-2017 00:00:00 8.37167 C 53.2417 %
111 21-04-2017 00:00:00 9.44167 C 57.5750 %
112 22-04-2017 00:00:00 10.7925 C 61.3833 %
113 23-04-2017 00:00:00 10.56417 C 59.6333 %
114 24-04-2017 00:00:00 10.66583 C 57.9750 %
115 25-04-2017 00:00:00 11.07395 C 57.7143 %
116 26-04-2017 00:00:00 10.9975 C 52.8000 %
117 27-04-2017 00:00:00 10.80167 C 55.5250 %
118 28-04-2017 00:00:00 9.695 C 54.5000 %
119 29-04-2017 00:00:00 10.51083 C 59.0833 %
120 30-04-2017 00:00:00 11.60583 C 55.6167 %
121 01-05-2017 00:00:00 12.7 C 56.0000 %
122 02-05-2017 00:00:00 11.525 C 63.9432 %
123 03-05-2017 00:00:00 11.48417 C 65.4750 %
124 04-05-2017 00:00:00 12.02333 C 66.8667 %
125 05-05-2017 00:00:00 12.46583 C 66.8917 %
Sensor: Nr:Datum:Temp:Feuchte:
G-T/H 126 06-05-2017 00:00:00 12.505 C 65.2333 %
127 07-05-2017 00:00:00 13.83043 C 67.2696 %
128 08-05-2017 00:00:00 12.83417 C 66.4333 %
129 09-05-2017 00:00:00 12.20583 C 62.3250 %
130 10-05-2017 00:00:00 12.52917 C 54.6833 %
131 11-05-2017 00:00:00 13.12917 C 60.2667 %
132 12-05-2017 00:00:00 14.3375 C 64.2333 %
133 13-05-2017 00:00:00 14.86667 C 65.6583 %
134 14-05-2017 00:00:00 15.34083 C 65.8667 %
135 15-05-2017 00:00:00 16.35667 C 54.4250 %
136 16-05-2017 00:00:00 18.42417 C 50.3083 %
137 17-05-2017 00:00:00 19.76083 C 51.8500 %
138 18-05-2017 00:00:00 18.36833 C 59.9083 %
139 19-05-2017 00:00:00 16.6075 C 64.9333 %
140 20-05-2017 00:00:00 14.935 C 64.1833 %
141 21-05-2017 00:00:00 15.3875 C 58.0667 %
142 22-05-2017 00:00:00 16.8975 C 56.7000 %
143 23-05-2017 00:00:00 17.30167 C 60.5667 %
144 24-05-2017 00:00:00 17.77333 C 59.5750 %
145 25-05-2017 00:00:00 17.38 C 63.0583 %
146 26-05-2017 00:00:00 18.09583 C 61.1583 %
147 27-05-2017 00:00:00 17.95583 C 63.3917 %
148 28-05-2017 00:00:00 18.6625 C 65.0333 %
149 29-05-2017 00:00:00 22.53667 C 59.7333 %
150 30-05-2017 00:00:00 22.135 C 60.5250 %
Sensor: Nr:Datum:Temp:Feuchte:
G-T/H 151 31-05-2017 00:00:00 19.19583 C 54.8917 %
152 01-06-2017 00:00:00 19.02333 C 60.4250 %
153 02-06-2017 00:00:00 19.42667 C 64.1667 %
154 03-06-2017 00:00:00 18.96167 C 68.0500 %
155 04-06-2017 00:00:00 18.245 C 68.2333 %
156 05-06-2017 00:00:00 17.78167 C 63.8583 %
157 06-06-2017 00:00:00 17.53167 C 62.7417 %
158 07-06-2017 00:00:00 16.31 C 63.1083 %
159 08-06-2017 00:00:00 17.10583 C 63.0167 %
160 09-06-2017 00:00:00 17.65833 C 65.4167 %
161 10-06-2017 00:00:00 17.03667 C 64.8083 %
162 11-06-2017 00:00:00 17.98917 C 66.8667 %
163 12-06-2017 00:00:00 20.2225 C 51.9750 %
164 13-06-2017 00:00:00 19.605 C 52.3167 %
165 14-06-2017 00:00:00 20.2375 C 52.8333 %
166 15-06-2017 00:00:00 22.41083 C 52.1917 %
167 16-06-2017 00:00:00 21.05417 C 50.7750 %
168 17-06-2017 00:00:00 19.55083 C 56.9583 %
169 18-06-2017 00:00:00 19.47917 C 61.1333 %
170 19-06-2017 00:00:00 21.37083 C 53.8417 %
171 20-06-2017 00:00:00 23.81417 C 48.4333 %
172 21-06-2017 00:00:00 23.19167 C 55.3333 %
173 22-06-2017 00:00:00 24.54167 C 57.7417 %
174 23-06-2017 00:00:00 23.06 C 57.7583 %
175 24-06-2017 00:00:00 22.64 C 51.3500 %
Sensor: Nr:Datum:Temp:Feuchte:
G-T/H 176 25-06-2017 00:00:00 21.49083 C 54.8583 %
177 26-06-2017 00:00:00 21.5775 C 55.2833 %
178 27-06-2017 00:00:00 20.69417 C 59.6083 %
179 28-06-2017 00:00:00 19.86 C 64.0167 %
180 29-06-2017 00:00:00 19.49417 C 65.1083 %
181 30-06-2017 00:00:00 19.17167 C 60.7667 %
182 01-07-2017 00:00:00 18.81833 C 64.2833 %
183 02-07-2017 00:00:00 18.1925 C 66.6917 %
184 03-07-2017 00:00:00 19.315 C 56.5417 %
185 04-07-2017 00:00:00 20.50083 C 54.7667 %
186 05-07-2017 00:00:00 21.10917 C 57.5583 %
187 06-07-2017 00:00:00 21.4425 C 61.7000 %
188 07-07-2017 00:00:00 21.30333 C 64.3833 %
189 08-07-2017 00:00:00 22.9425 C 56.5250 %
190 09-07-2017 00:00:00 22.685 C 59.5417 %
191 10-07-2017 00:00:00 21.98167 C 63.7417 %
192 11-07-2017 00:00:00 21.20417 C 60.4000 %
193 12-07-2017 00:00:00 20.39167 C 63.4250 %
194 13-07-2017 00:00:00 18.97917 C 57.3833 %
195 14-07-2017 00:00:00 18.96417 C 57.4250 %
196 15-07-2017 00:00:00 18.67083 C 60.6333 %
197 16-07-2017 00:00:00 19.535 C 63.6583 %
198 17-07-2017 00:00:00 19.89917 C 65.6333 %
199 18-07-2017 00:00:00 21.48667 C 62.7583 %
200 19-07-2017 00:00:00 23.825 C 58.2333 %
Sensor: Nr:Datum:Temp:Feuchte:
G-T/H 201 20-07-2017 00:00:00 22.49083 C 62.1083 %
202 21-07-2017 00:00:00 21.79917 C 56.1083 %
203 22-07-2017 00:00:00 22.77167 C 60.8833 %
204 23-07-2017 00:00:00 20.45167 C 59.6000 %
205 24-07-2017 00:00:00 19.83667 C 60.9500 %
206 25-07-2017 00:00:00 18.2725 C 64.9333 %
207 26-07-2017 00:00:00 17.95417 C 67.3667 %
208 27-07-2017 00:00:00 18.53667 C 68.7167 %
209 28-07-2017 00:00:00 18.61833 C 68.6833 %
210 29-07-2017 00:00:00 19.14917 C 68.9333 %
211 30-07-2017 00:00:00 20.87667 C 66.4833 %
212 31-07-2017 00:00:00 21.91167 C 61.1500 %
213 01-08-2017 00:00:00 20.985 C 66.8500 %
214 02-08-2017 00:00:00 21.5925 C 67.6250 %
215 03-08-2017 00:00:00 22.08 C 67.0000 %
216 04-08-2017 00:00:00 21.2975 C 66.9500 %
217 05-08-2017 00:00:00 21.27333 C 64.2583 %
218 06-08-2017 00:00:00 20.1425 C 61.5500 %
219 07-08-2017 00:00:00 19.51083 C 54.8250 %
220 08-08-2017 00:00:00 19.4725 C 62.0000 %
221 09-08-2017 00:00:00 19.2825 C 61.9750 %
222 10-08-2017 00:00:00 18.88083 C 65.6083 %
223 11-08-2017 00:00:00 17.85167 C 68.4083 %
224 12-08-2017 00:00:00 17.38667 C 69.6917 %
225 13-08-2017 00:00:00 17.925 C 70.8917 %
Sensor: Nr:Datum:Temp:Feuchte:
G-T/H 226 14-08-2017 00:00:00 19.18583 C 69.3417 %
227 15-08-2017 00:00:00 19.95167 C 75.4000 %
228 16-08-2017 00:00:00 20.395 C 70.4750 %
229 17-08-2017 00:00:00 20.77833 C 67.9583 %
230 18-08-2017 00:00:00 20.07417 C 69.9500 %
231 19-08-2017 00:00:00 18.63167 C 65.2583 %
232 20-08-2017 00:00:00 18.18833 C 65.5833 %
233 21-08-2017 00:00:00 18.33833 C 61.8250 %
234 22-08-2017 00:00:00 18.3375 C 62.2833 %
235 23-08-2017 00:00:00 19.39 C 63.6250 %
236 24-08-2017 00:00:00 19.39667 C 66.6750 %
237 25-08-2017 00:00:00 19.01417 C 68.4583 %
238 26-08-2017 00:00:00 19.33833 C 70.7917 %
239 27-08-2017 00:00:00 19.525 C 71.7250 %
240 28-08-2017 00:00:00 20.30583 C 68.8833 %
241 29-08-2017 00:00:00 21.09333 C 67.8833 %
242 30-08-2017 00:00:00 20.41167 C 70.1917 %
243 31-08-2017 00:00:00 19.86975 C 70.1176 %
244 01-09-2017 00:00:00 18.04083 C 64.9250 %
245 02-09-2017 00:00:00 17.755 C 68.6500 %
246 03-09-2017 00:00:00 16.90667 C 68.1250 %
247 04-09-2017 00:00:00 16.00917 C 69.3750 %
248 05-09-2017 00:00:00 18.28917 C 72.6000 %
249 06-09-2017 00:00:00 18.70833 C 64.8917 %
250 07-09-2017 00:00:00 17.72833 C 62.5167 %
Sensor: Nr:Datum:Temp:Feuchte:
G-T/H 251 08-09-2017 00:00:00 17.6225 C 64.3417 %
252 09-09-2017 00:00:00 17.3775 C 67.9250 %
253 10-09-2017 00:00:00 16.50417 C 66.3083 %
254 11-09-2017 00:00:00 16.29333 C 68.5500 %
255 12-09-2017 00:00:00 16.13083 C 70.5250 %
256 13-09-2017 00:00:00 15.99917 C 71.1667 %
257 14-09-2017 00:00:00 15.7775 C 71.3250 %
258 15-09-2017 00:00:00 15.14 C 71.7083 %
259 16-09-2017 00:00:00 14.15 C 67.6833 %
260 17-09-2017 00:00:00 14.06833 C 69.8750 %
261 18-09-2017 00:00:00 13.68417 C 70.3917 %
262 19-09-2017 00:00:00 14.2875 C 73.3667 %
263 20-09-2017 00:00:00 14.18167 C 72.9250 %
264 21-09-2017 00:00:00 14.33333 C 68.9000 %
265 22-09-2017 00:00:00 14.20083 C 71.1333 %
266 23-09-2017 00:00:00 14.86583 C 71.6917 %
267 24-09-2017 00:00:00 13.5 C 74.4750 %
268 25-09-2017 00:00:00 14.49667 C 74.4000 %
269 26-09-2017 00:00:00 14.90833 C 74.1417 %
270 27-09-2017 00:00:00 15.24333 C 75.2000 %
271 28-09-2017 00:00:00 15.29833 C 75.7917 %
272 29-09-2017 00:00:00 16.4625 C 76.9750 %
273 30-09-2017 00:00:00 16.51167 C 76.8667 %
274 01-10-2017 00:00:00 15.07167 C 73.4917 %
275 02-10-2017 00:00:00 14.96167 C 75.8333 %
Sensor: Nr:Datum:Temp:Feuchte:
G-T/H 276 03-10-2017 00:00:00 15.05583 C 75.3167 %
277 04-10-2017 00:00:00 14.14417 C 72.4833 %
278 05-10-2017 00:00:00 14.39917 C 74.4417 %
279 06-10-2017 00:00:00 13.515 C 72.0000 %
280 07-10-2017 00:00:00 13.36583 C 74.1000 %
281 08-10-2017 00:00:00 13.59833 C 76.1167 %
282 09-10-2017 00:00:00 13.71417 C 76.4750 %
283 10-10-2017 00:00:00 14.10667 C 77.2250 %
284 11-10-2017 00:00:00 14.48833 C 77.7500 %
285 12-10-2017 00:00:00 14.45833 C 77.2083 %
286 13-10-2017 00:00:00 14.39417 C 77.1167 %
287 14-10-2017 00:00:00 14.55667 C 77.2000 %
288 15-10-2017 00:00:00 14.22167 C 77.1917 %
289 16-10-2017 00:00:00 14.72417 C 80.6250 %
290 17-10-2017 00:00:00 14.50583 C 80.0333 %
291 18-10-2017 00:00:00 14.23 C 79.1833 %
292 19-10-2017 00:00:00 13.8025 C 76.9750 %
293 20-10-2017 00:00:00 14.11261 C 77.8235 %
294 21-10-2017 00:00:00 13.58417 C 75.6250 %
295 22-10-2017 00:00:00 13.64333 C 74.5083 %
296 23-10-2017 00:00:00 13.15167 C 73.8667 %
297 24-10-2017 00:00:00 13.7125 C 77.3167 %
298 25-10-2017 00:00:00 14.60167 C 78.0000 %
299 26-10-2017 00:00:00 14.7325 C 78.0000 %
300 27-10-2017 00:00:00 14.395 C 76.2583 %
Sensor: Nr:Datum:Temp:Feuchte:
G-T/H 301 28-10-2017 00:00:00 13.38917 C 71.6000 %
302 29-10-2017 00:00:00 13.2736 C 70.4000 %
303 30-10-2017 00:00:00 11.94167 C 67.1167 %
304 31-10-2017 00:00:00 11.315 C 67.7083 %
305 01-11-2017 00:00:00 11.75833 C 71.3750 %
306 02-11-2017 00:00:00 11.43667 C 71.0500 %
307 03-11-2017 00:00:00 11.36333 C 71.6167 %
308 04-11-2017 00:00:00 11.05083 C 71.6417 %
309 05-11-2017 00:00:00 11.7925 C 73.8417 %
310 06-11-2017 00:00:00 10.80417 C 68.9083 %
311 07-11-2017 00:00:00 10.16167 C 68.1500 %
312 08-11-2017 00:00:00 10.51583 C 72.8417 %
313 09-11-2017 00:00:00 10.89833 C 74.4833 %
314 10-11-2017 00:00:00 10.70833 C 72.4333 %
315 11-11-2017 00:00:00 10.25917 C 71.3500 %
316 12-11-2017 00:00:00 9.99417 C 71.9333 %
317 13-11-2017 00:00:00 9.82667 C 72.4833 %
318 14-11-2017 00:00:00 9.44833 C 71.5833 %
319 15-11-2017 00:00:00 9.78417 C 73.4833 %
320 16-11-2017 00:00:00 9.8675 C 71.0000 %
321 17-11-2017 00:00:00 10.21917 C 72.6917 %
322 18-11-2017 00:00:00 8.93333 C 68.2833 %
323 19-11-2017 00:00:00 9.44917 C 70.7667 %
324 20-11-2017 00:00:00 9.4175 C 70.1500 %
325 21-11-2017 00:00:00 10.07833 C 73.5833 %
Sensor: Nr:Datum:Temp:Feuchte:
G-T/H 326 22-11-2017 00:00:00 10.72 C 73.9917 %
327 23-11-2017 00:00:00 10.0175 C 71.3000 %
328 24-11-2017 00:00:00 11.32583 C 75.4750 %
329 25-11-2017 00:00:00 10.815 C 70.9083 %
330 26-11-2017 00:00:00 9.25 C 65.7167 %
331 27-11-2017 00:00:00 9.09917 C 68.4083 %
332 28-11-2017 00:00:00 9.38167 C 70.0917 %
333 29-11-2017 00:00:00 8.70583 C 68.4167 %
334 30-11-2017 00:00:00 8.38083 C 67.8167 %
335 01-12-2017 00:00:00 7.8275 C 66.9750 %
336 02-12-2017 00:00:00 6.8025 C 64.3667 %
337 03-12-2017 00:00:00 7.2 C 63.1583 %
338 04-12-2017 00:00:00 7.5275 C 69.7417 %
339 05-12-2017 00:00:00 8.31833 C 73.2750 %
340 06-12-2017 00:00:00 8.98333 C 73.6833 %
341 07-12-2017 00:00:00 8.76667 C 67.2083 %
342 08-12-2017 00:00:00 8.66917 C 66.2417 %
343 09-12-2017 00:00:00 7.4925 C 59.9167 %
344 10-12-2017 00:00:00 7.18333 C 64.1750 %
345 11-12-2017 00:00:00 7.94417 C 72.5667 %
346 12-12-2017 00:00:00 8.19083 C 68.4083 %
347 13-12-2017 00:00:00 7.93917 C 67.1333 %
348 14-12-2017 00:00:00 7.92667 C 69.1000 %
349 15-12-2017 00:00:00 7.94167 C 70.5000 %
350 16-12-2017 00:00:00 7.925 C 71.0833 %
Sensor: Nr:Datum:Temp:Feuchte:
G-T/H 351 17-12-2017 00:00:00 7.8375 C 69.7667 %
352 18-12-2017 00:00:00 7.10333 C 67.6500 %
353 19-12-2017 00:00:00 7.60417 C 70.4667 %
354 20-12-2017 00:00:00 8.29083 C 73.0000 %
355 21-12-2017 00:00:00 9.43333 C 74.8833 %
356 22-12-2017 00:00:00 10.32333 C 75.8833 %
357 23-12-2017 00:00:00 10.45667 C 76.0750 %
358 24-12-2017 00:00:00 10.61417 C 75.9000 %
359 25-12-2017 00:00:00 10.30833 C 71.7667 %
360 26-12-2017 00:00:00 9.0975 C 68.1083 %
361 27-12-2017 00:00:00 8.905 C 71.4083 %
362 28-12-2017 00:00:00 8.96167 C 70.6417 %
363 29-12-2017 00:00:00 14.36852 C 70.8611 %
364 30-12-2017 00:00:00 8.1925 C 73.4750 %
365 31-12-2017 00:00:00 10.73 C 74.9167 %
366 01-01-2018 00:00:00 10.91333 C 70.9167 %
367 02-01-2018 00:00:00 9.93833 C 71.7000 %
368 03-01-2018 00:00:00 9.98417 C 71.9333 %
369 04-01-2018 00:00:00 9.81167 C 73.7667 %
370 05-01-2018 00:00:00 10.06833 C 72.5333 %
371 06-01-2018 00:00:00 9.95417 C 74.1667 %
372 07-01-2018 00:00:00 9.5275 C 72.0083 %
373 08-01-2018 00:00:00 8.9575 C 69.3000 %
374 09-01-2018 00:00:00 8.81583 C 71.4583 %
375 10-01-2018 00:00:00 9.03917 C 73.1917 %
Sensor: Nr:Datum:Temp:Feuchte:
G-T/H 376 11-01-2018 00:00:00 9.4725 C 74.4333 %
377 12-01-2018 00:00:00 9.7375 C 75.0000 %
378 13-01-2018 00:00:00 9.48 C 71.6333 %
379 14-01-2018 00:00:00 8.7325 C 64.1833 %
380 15-01-2018 00:00:00 8.00083 C 65.2500 %
381 16-01-2018 00:00:00 8.6025 C 70.4000 %
382 17-01-2018 00:00:00 8.19 C 66.7833 %
383 18-01-2018 00:00:00 8.2875 C 68.1000 %
384 19-01-2018 00:00:00 8.47333 C 67.2417 %
385 20-01-2018 00:00:00 7.515 C 67.7833 %
386 21-01-2018 00:00:00 7.5275 C 70.9250 %
387 22-01-2018 00:00:00 7.75 C 71.9417 %
388 23-01-2018 00:00:00 8.69492 C 73.4661 %
389 24-01-2018 00:00:00 9.75556 C 74.8120 %
390 25-01-2018 00:00:00 10.6075 C 75.1917 %
391 26-01-2018 00:00:00 10.3125 C 74.1917 %
392 27-01-2018 00:00:00 9.54 C 72.2583 %
393 28-01-2018 00:00:00 9.4625 C 73.1917 %
394 29-01-2018 00:00:00 10.13833 C 74.2667 %
395 30-01-2018 00:00:00 9.76167 C 71.3917 %
396 31-01-2018 00:00:00 9.43 C 72.7083 %
397 01-02-2018 00:00:00 8.55 C 67.8083 %
398 02-02-2018 00:00:00 7.83917 C 68.3833 %
399 03-02-2018 00:00:00 7.98992 C 68.2521 %
400 04-02-2018 00:00:00 7.4 C 63.4333 %
Sensor: Nr:Datum:Temp:Feuchte:
G-T/H 401 05-02-2018 00:00:00 6.47 C 60.2917 %
402 06-02-2018 00:00:00 6.30833 C 61.8333 %
403 07-02-2018 00:00:00 6.2075 C 63.0250 %
404 08-02-2018 00:00:00 5.975 C 61.9833 %
405 09-02-2018 00:00:00 5.43333 C 63.6917 %
406 10-02-2018 00:00:00 6.105 C 66.3083 %
407 11-02-2018 00:00:00 6.99167 C 66.3833 %
408 12-02-2018 00:00:00 7.07833 C 64.5250 %
409 13-02-2018 00:00:00 6.335 C 60.4167 %
410 14-02-2018 00:00:00 5.87917 C 61.6500 %
411 15-02-2018 00:00:00 5.88583 C 66.8833 %
412 16-02-2018 00:00:00 6.29667 C 70.6750 %
413 17-02-2018 00:00:00 6.07083 C 67.1000 %
414 18-02-2018 00:00:00 5.89667 C 66.5500 %
415 19-02-2018 00:00:00 5.89083 C 68.3167 %
416 20-02-2018 00:00:00 6.01 C 66.1333 %
417 21-02-2018 00:00:00 5.89083 C 63.8500 %
418 22-02-2018 00:00:00 5.73333 C 61.2667 %
419 23-02-2018 00:00:00 5.48583 C 60.5583 %
420 24-02-2018 00:00:00 5.12583 C 59.3667 %
421 25-02-2018 00:00:00 4.93667 C 56.8667 %
422 26-02-2018 00:00:00 4.61167 C 55.2417 %
423 27-02-2018 00:00:00 4.5275 C 52.9667 %
424 28-02-2018 00:00:00 4.28667 C 51.9750 %
425 01-03-2018 00:00:00 4.305 C 53.0333 %
Sensor: Nr:Datum:Temp:Feuchte:
G-T/H 426 02-03-2018 00:00:00 4.77417 C 54.7917 %
427 03-03-2018 00:00:00 5.21917 C 60.2833 %
428 04-03-2018 00:00:00 6.01083 C 65.3000 %
429 05-03-2018 00:00:00 7.26 C 67.7083 %
430 06-03-2018 00:00:00 7.275 C 64.2583 %
431 07-03-2018 00:00:00 8.05833 C 67.2083 %
432 08-03-2018 00:00:00 8.30667 C 69.2500 %
433 09-03-2018 00:00:00 8.13 C 70.0750 %
434 10-03-2018 00:00:00 8.92167 C 72.5500 %
435 11-03-2018 00:00:00 10.33 C 74.6417 %
436 12-03-2018 00:00:00 10.33667 C 74.2417 %
437 13-03-2018 00:00:00 10.06083 C 73.3417 %
438 14-03-2018 00:00:00 9.31667 C 70.8667 %
439 15-03-2018 00:00:00 8.67083 C 68.2833 %
440 16-03-2018 00:00:00 9.4175 C 72.0250 %
441 17-03-2018 00:00:00 8.13333 C 61.2417 %
442 18-03-2018 00:00:00 6.64 C 57.5417 %
443 19-03-2018 00:00:00 6.395 C 58.4417 %
444 20-03-2018 00:00:00 6.19167 C 59.8333 %
445 21-03-2018 00:00:00 6.24 C 61.0167 %
446 22-03-2018 00:00:00 6.45333 C 62.8500 %
447 23-03-2018 00:00:00 7.555 C 68.1250 %
448 24-03-2018 00:00:00 7.95833 C 66.2333 %
449 25-03-2018 00:00:00 7.42522 C 63.5130 %
450 26-03-2018 00:00:00 8.47583 C 65.8417 %
Sensor: Nr:Datum:Temp:Feuchte:
G-T/H 451 27-03-2018 00:00:00 8.32583 C 65.0083 %
452 28-03-2018 00:00:00 9.05 C 70.1833 %
453 29-03-2018 00:00:00 9.1875 C 67.9333 %
454 30-03-2018 00:00:00 8.73083 C 65.5333 %
455 31-03-2018 00:00:00 9.3075 C 68.4417 %
456 01-04-2018 00:00:00 9.65917 C 69.4500 %
457 02-04-2018 00:00:00 9.52333 C 68.1000 %
458 03-04-2018 00:00:00 10.725 C 69.7000 %
459 04-04-2018 00:00:00 11.48583 C 70.6333 %
460 05-04-2018 00:00:00 10.94833 C 68.8000 %
461 06-04-2018 00:00:00 9.26167 C 62.4833 %
462 07-04-2018 00:00:00 10.58667 C 62.3917 %
463 08-04-2018 00:00:00 13.47 C 59.0417 %
464 09-04-2018 00:00:00 14.53917 C 57.1667 %
465 10-04-2018 00:00:00 13.77667 C 63.5000 %
466 11-04-2018 00:00:00 13.00917 C 66.6083 %
467 12-04-2018 00:00:00 12.9425 C 66.9917 %
468 13-04-2018 00:00:00 12.73333 C 67.2917 %
469 14-04-2018 00:00:00 13.63417 C 61.7667 %
470 15-04-2018 00:00:00 13.92167 C 65.0333 %
471 16-04-2018 00:00:00 14.52167 C 62.0000 %
472 17-04-2018 00:00:00 14.20333 C 61.1500 %
473 18-04-2018 00:00:00 14.54417 C 62.2333 %
474 19-04-2018 00:00:00 14.79583 C 62.5583 %
475 20-04-2018 00:00:00 15.73333 C 61.3833 %
Sensor: Nr:Datum:Temp:Feuchte:
G-T/H 476 21-04-2018 00:00:00 15.80333 C 63.5083 %
477 22-04-2018 00:00:00 15.78333 C 66.2917 %
478 23-04-2018 00:00:00 17.01667 C 62.7833 %
479 24-04-2018 00:00:00 16.23833 C 56.5917 %
480 25-04-2018 00:00:00 15.21833 C 62.0333 %
481 26-04-2018 00:00:00 13.76 C 51.5583 %
482 27-04-2018 00:00:00 13.61917 C 56.6250 %
483 28-04-2018 00:00:00 13.9325 C 61.2917 %
484 29-04-2018 00:00:00 14.02083 C 64.6000 %
485 30-04-2018 00:00:00 14.6725 C 64.2917 %
486 01-05-2018 00:00:00 13.36417 C 58.0083 %
487 02-05-2018 00:00:00 13.24833 C 56.1500 %
488 03-05-2018 00:00:00 13.77 C 57.8750 %
489 04-05-2018 00:00:00 13.83917 C 58.3750 %
490 05-05-2018 00:00:00 15.43167 C 55.9333 %
491 06-05-2018 00:00:00 15.6825 C 57.6750 %
492 07-05-2018 00:00:00 17.61 C 52.7917 %
493 08-05-2018 00:00:00 18.74917 C 49.1583 %
494 09-05-2018 00:00:00 17.61417 C 55.5167 %
495 10-05-2018 00:00:00 16.74583 C 61.1667 %
496 11-05-2018 00:00:00 15.555 C 63.3500 %
497 12-05-2018 00:00:00 15.79083 C 63.9333 %
498 13-05-2018 00:00:00 16.08833 C 66.4583 %
499 14-05-2018 00:00:00 15.57667 C 68.2083 %
500 15-05-2018 00:00:00 16.8825 C 59.6083 %
Sensor: Nr:Datum:Temp:Feuchte:
G-T/H 501 16-05-2018 00:00:00 16.71333 C 63.0083 %
502 17-05-2018 00:00:00 15.91 C 63.1083 %
503 18-05-2018 00:00:00 15.1975 C 60.7083 %
504 19-05-2018 00:00:00 15.0375 C 63.1750 %
505 20-05-2018 00:00:00 15.13333 C 64.4667 %
506 21-05-2018 00:00:00 16.85667 C 64.3167 %
507 22-05-2018 00:00:00 17.2475 C 65.6333 %
508 23-05-2018 00:00:00 16.85417 C 68.0583 %
509 24-05-2018 00:00:00 16.56417 C 69.4500 %
510 25-05-2018 00:00:00 17.3275 C 69.1583 %
511 26-05-2018 00:00:00 18.92583 C 67.1167 %
512 27-05-2018 00:00:00 18.99167 C 68.2750 %
513 28-05-2018 00:00:00 18.94167 C 69.8667 %
514 29-05-2018 00:00:00 19.4375 C 69.9667 %
515 30-05-2018 00:00:00 19.22417 C 70.2750 %
516 31-05-2018 00:00:00 19.74667 C 69.8500 %
517 01-06-2018 00:00:00 19.70417 C 70.5583 %
518 02-06-2018 00:00:00 19.1175 C 70.5000 %
519 03-06-2018 00:00:00 19.86917 C 66.6000 %
520 04-06-2018 00:00:00 21.16 C 62.4500 %
521 05-06-2018 00:00:00 21.1225 C 62.2500 %
522 06-06-2018 00:00:00 20.28167 C 64.7000 %
523 07-06-2018 00:00:00 20.33167 C 66.7250 %
524 08-06-2018 00:00:00 20.14167 C 68.3250 %
525 09-06-2018 00:00:00 21.14508 C 68.4918 %
Sensor: Nr:Datum:Temp:Feuchte:
G-T/H 526 10-06-2018 00:00:00 20.73583 C 69.4833 %
527 11-06-2018 00:00:00 20.2075 C 70.2833 %
528 12-06-2018 00:00:00 18.93333 C 70.9417 %
529 13-06-2018 00:00:00 17.78333 C 67.8500 %
530 14-06-2018 00:00:00 17.08167 C 65.6167 %
531 15-06-2018 00:00:00 17.87667 C 69.7333 %
532 16-06-2018 00:00:00 19.23167 C 66.0250 %
533 17-06-2018 00:00:00 19.20917 C 66.1250 %
534 18-06-2018 00:00:00 18.5725 C 66.5167 %
535 19-06-2018 00:00:00 19.3025 C 68.1667 %
536 20-06-2018 00:00:00 21.34417 C 62.6417 %
537 21-06-2018 00:00:00 20.40083 C 61.7667 %
538 22-06-2018 00:00:00 18.12583 C 59.1417 %
539 23-06-2018 00:00:00 16.91917 C 60.9000 %
540 24-06-2018 00:00:00 17.08583 C 64.6833 %
541 25-06-2018 00:00:00 17.72833 C 66.0250 %
542 26-06-2018 00:00:00 18.48917 C 62.1583 %
543 27-06-2018 00:00:00 19.815 C 57.9000 %
544 28-06-2018 00:00:00 20.73667 C 53.0667 %
545 29-06-2018 00:00:00 22.01 C 53.8250 %
546 30-06-2018 00:00:00 22.90917 C 48.2667 %
547 01-07-2018 00:00:00 21.50833 C 49.2500 %
548 02-07-2018 00:00:00 21.34083 C 43.1083 %
549 03-07-2018 00:00:00 20.70167 C 49.9250 %
550 04-07-2018 00:00:00 21.1075 C 60.3667 %
Sensor: Nr:Datum:Temp:Feuchte:
G-T/H 551 05-07-2018 00:00:00 21.2225 C 66.7750 %
552 06-07-2018 00:00:00 20.8225 C 63.6917 %
553 07-07-2018 00:00:00 20.45126 C 62.5294 %
554 08-07-2018 00:00:00 20.11833 C 59.9000 %
555 09-07-2018 00:00:00 20.74917 C 55.1417 %
556 10-07-2018 00:00:00 20.3825 C 58.3167 %
557 11-07-2018 00:00:00 18.89583 C 62.6083 %
558 12-07-2018 00:00:00 18.92167 C 65.2500 %
559 13-07-2018 00:00:00 20.39417 C 62.1167 %
560 14-07-2018 00:00:00 20.52583 C 63.2833 %
561 15-07-2018 00:00:00 20.67417 C 63.4333 %
562 16-07-2018 00:00:00 20.8475 C 63.2583 %
563 17-07-2018 00:00:00 20.97167 C 63.0667 %
564 18-07-2018 00:00:00 20.9325 C 59.6167 %
565 19-07-2018 00:00:00 21.11667 C 54.9500 %
566 20-07-2018 00:00:00 21.86917 C 52.9083 %
567 21-07-2018 00:00:00 21.57333 C 58.8500 %
568 22-07-2018 00:00:00 20.75417 C 62.4750 %
569 23-07-2018 00:00:00 22.1575 C 57.9833 %
570 24-07-2018 00:00:00 23.88 C 52.9250 %
571 25-07-2018 00:00:00 24.83333 C 49.4917 %
572 26-07-2018 00:00:00 25.99417 C 48.0750 %
573 27-07-2018 00:00:00 25.445 C 46.9000 %
574 28-07-2018 00:00:00 24.04917 C 55.1667 %
575 29-07-2018 00:00:00 22.61667 C 58.5167 %
Sensor: Nr:Datum:Temp:Feuchte:
G-T/H 576 30-07-2018 00:00:00 24.22583 C 54.8000 %
577 31-07-2018 00:00:00 25.41833 C 51.8250 %
578 01-08-2018 00:00:00 23.80667 C 61.0833 %
579 02-08-2018 00:00:00 23.36417 C 62.3583 %
580 03-08-2018 00:00:00 24.53167 C 58.5333 %
581 04-08-2018 00:00:00 25.9125 C 50.5583 %
582 05-08-2018 00:00:00 24.74417 C 53.5917 %
583 06-08-2018 00:00:00 24.53333 C 49.9583 %
584 07-08-2018 00:00:00 24.12667 C 54.2583 %
585 08-08-2018 00:00:00 24.27667 C 57.4917 %
586 09-08-2018 00:00:00 23.23333 C 60.5250 %
587 10-08-2018 00:00:00 21.49417 C 54.0000 %
588 11-08-2018 00:00:00 20.81667 C 56.0583 %
589 12-08-2018 00:00:00 20.13 C 56.1333 %
590 13-08-2018 00:00:00 20.07083 C 60.5667 %
591 14-08-2018 00:00:00 19.80333 C 63.5000 %
592 15-08-2018 00:00:00 19.82917 C 65.0667 %
593 16-08-2018 00:00:00 19.9875 C 64.3500 %
594 17-08-2018 00:00:00 20.46083 C 64.9583 %
595 18-08-2018 00:00:00 19.96167 C 62.2667 %
596 19-08-2018 00:00:00 19.83667 C 62.1667 %
597 20-08-2018 00:00:00 21.2525 C 62.2667 %
598 21-08-2018 00:00:00 21.17667 C 63.9333 %
599 22-08-2018 00:00:00 21.1725 C 64.1750 %
600 23-08-2018 00:00:00 21.47667 C 64.7000 %
Sensor: Nr:Datum:Temp:Feuchte:
G-T/H 601 24-08-2018 00:00:00 21.1275 C 62.0417 %
602 25-08-2018 00:00:00 19.5075 C 59.1667 %
603 26-08-2018 00:00:00 18.22417 C 55.7083 %
604 27-08-2018 00:00:00 18.48167 C 60.4500 %
605 28-08-2018 00:00:00 18.53833 C 61.2250 %
606 29-08-2018 00:00:00 18.56917 C 62.2417 %
607 30-08-2018 00:00:00 18.82333 C 63.4833 %
608 31-08-2018 00:00:00 18.3025 C 59.8750 %
609 01-09-2018 00:00:00 17.4825 C 59.8917 %
610 02-09-2018 00:00:00 16.9325 C 62.1583 %
611 03-09-2018 00:00:00 18.13333 C 66.0000 %
612 04-09-2018 00:00:00 19.61083 C 66.7083 %
613 05-09-2018 00:00:00 19.59583 C 67.1750 %
614 06-09-2018 00:00:00 19.38917 C 68.3667 %
615 07-09-2018 00:00:00 18.6775 C 67.7917 %
616 08-09-2018 00:00:00 17.10833 C 59.8333 %
617 09-09-2018 00:00:00 17.1975 C 64.7667 %
618 10-09-2018 00:00:00 18.47583 C 60.5250 %
619 11-09-2018 00:00:00 19.45417 C 58.4917 %
620 12-09-2018 00:00:00 18.84083 C 60.8833 %
621 13-09-2018 00:00:00 18.58083 C 66.2167 %
622 14-09-2018 00:00:00 18.04833 C 65.0000 %
623 15-09-2018 00:00:00 17.66667 C 59.8833 %
624 16-09-2018 00:00:00 16.83 C 61.8000 %
625 17-09-2018 00:00:00 17.8475 C 57.0583 %
Sensor: Nr:Datum:Temp:Feuchte:
G-T/H 626 18-09-2018 00:00:00 19.79417 C 56.2333 %
627 19-09-2018 00:00:00 21.03083 C 58.0583 %
628 20-09-2018 00:00:00 20.82 C 55.5500 %
629 21-09-2018 00:00:00 19.29417 C 59.4833 %
630 22-09-2018 00:00:00 17.24917 C 60.5250 %
631 23-09-2018 00:00:00 16.50167 C 65.7500 %
632 24-09-2018 00:00:00 15.14583 C 63.3167 %
633 25-09-2018 00:00:00 13.7275 C 62.7333 %
634 26-09-2018 00:00:00 13.02583 C 63.2917 %
635 27-09-2018 00:00:00 13.0625 C 65.7333 %
636 28-09-2018 00:00:00 13.53583 C 69.5083 %
637 29-09-2018 00:00:00 12.62 C 64.5750 %
638 30-09-2018 00:00:00 11.83417 C 63.4000 %
639 01-10-2018 00:00:00 12.43167 C 68.0167 %
640 02-10-2018 00:00:00 12.47917 C 67.0333 %
641 03-10-2018 00:00:00 13.125 C 70.8750 %
642 04-10-2018 00:00:00 12.85083 C 66.8417 %
643 05-10-2018 00:00:00 13.175 C 68.1250 %
644 06-10-2018 00:00:00 12.79833 C 73.9167 %
645 07-10-2018 00:00:00 14.22167 C 74.0833 %
646 08-10-2018 00:00:00 13.52083 C 69.3917 %
647 09-10-2018 00:00:00 13.39083 C 72.8583 %
648 10-10-2018 00:00:00 13.75333 C 75.3000 %
649 11-10-2018 00:00:00 13.985 C 75.0167 %
650 12-10-2018 00:00:00 14.54333 C 75.8417 %
Sensor: Nr:Datum:Temp:Feuchte:
G-T/H 651 13-10-2018 00:00:00 15.69 C 72.6083 %
652 14-10-2018 00:00:00 15.11667 C 72.1917 %
653 15-10-2018 00:00:00 14.6725 C 73.1583 %
654 16-10-2018 00:00:00 14.08333 C 72.8917 %
655 17-10-2018 00:00:00 13.86667 C 73.4083 %
656 18-10-2018 00:00:00 14.26083 C 74.7500 %
657 19-10-2018 00:00:00 14.28333 C 73.2417 %
658 20-10-2018 00:00:00 14.01833 C 72.8250 %
659 21-10-2018 00:00:00 12.52583 C 67.5917 %
660 22-10-2018 00:00:00 11.7575 C 67.8750 %
661 23-10-2018 00:00:00 11.71417 C 69.2333 %
662 24-10-2018 00:00:00 13.1175 C 73.3417 %
663 25-10-2018 00:00:00 13.88083 C 73.4083 %
664 26-10-2018 00:00:00 13.5375 C 68.0250 %
665 27-10-2018 00:00:00 12.19667 C 65.8417 %
666 28-10-2018 00:00:00 10.9176 C 62.4880 %
667 29-10-2018 00:00:00 10.95583 C 65.6250 %
668 30-10-2018 00:00:00 10.86333 C 67.5167 %
669 31-10-2018 00:00:00 10.8775 C 68.4750 %
670 01-11-2018 00:00:00 10.72083 C 69.2750 %
671 02-11-2018 00:00:00 11.285 C 72.4667 %
672 03-11-2018 00:00:00 10.44 C 67.0750 %
673 04-11-2018 00:00:00 10.265 C 68.6167 %
674 05-11-2018 00:00:00 11.60167 C 72.5750 %
675 06-11-2018 00:00:00 11.5475 C 72.0167 %
Sensor: Nr:Datum:Temp:Feuchte:
G-T/H 676 07-11-2018 00:00:00 11.24083 C 72.4083 %
677 08-11-2018 00:00:00 11.87833 C 74.0333 %
678 09-11-2018 00:00:00 11.62333 C 73.2750 %
679 10-11-2018 00:00:00 12.22833 C 74.7000 %
680 11-11-2018 00:00:00 12.73917 C 75.7833 %
681 12-11-2018 00:00:00 13.255 C 75.6083 %
682 13-11-2018 00:00:00 13.2975 C 75.3417 %
683 14-11-2018 00:00:00 11.54667 C 70.8583 %
684 15-11-2018 00:00:00 11.19417 C 71.8333 %
685 16-11-2018 00:00:00 10.76833 C 68.8833 %
686 17-11-2018 00:00:00 9.25167 C 68.0000 %
687 18-11-2018 00:00:00 8.3775 C 68.4167 %
688 19-11-2018 00:00:00 8.15 C 69.1333 %
689 20-11-2018 00:00:00 8.56667 C 68.8833 %
690 21-11-2018 00:00:00 8.45333 C 69.6833 %
691 22-11-2018 00:00:00 8.65333 C 70.9083 %
692 23-11-2018 00:00:00 7.69667 C 69.4917 %
693 24-11-2018 00:00:00 8.0325 C 72.4750 %
694 25-11-2018 00:00:00 9.05667 C 73.9333 %
695 26-11-2018 00:00:00 9.6625 C 74.3250 %
696 27-11-2018 00:00:00 9.61333 C 72.8000 %
697 28-11-2018 00:00:00 8.91917 C 71.9583 %
698 29-11-2018 00:00:00 9.26083 C 73.8000 %
699 30-11-2018 00:00:00 9.63 C 74.7833 %
700 01-12-2018 00:00:00 9.92417 C 74.6250 %
Sensor: Nr:Datum:Temp:Feuchte:
G-T/H 701 02-12-2018 00:00:00 10.7275 C 75.6167 %
702 03-12-2018 00:00:00 11.87333 C 76.5417 %
703 04-12-2018 00:00:00 11.3275 C 72.0250 %
704 05-12-2018 00:00:00 9.61933 C 69.0504 %
705 06-12-2018 00:00:00 10.40583 C 72.9583 %
706 07-12-2018 00:00:00 11.82917 C 74.0583 %
707 08-12-2018 00:00:00 11.04667 C 70.6667 %
708 09-12-2018 00:00:00 10.81167 C 72.8000 %
709 10-12-2018 00:00:00 10.01083 C 71.3083 %
710 11-12-2018 00:00:00 9.19083 C 71.8583 %
711 12-12-2018 00:00:00 8.70667 C 72.1583 %
712 13-12-2018 00:00:00 8.07083 C 70.1167 %
713 14-12-2018 00:00:00 7.78 C 68.6583 %
714 15-12-2018 00:00:00 7.575 C 68.1083 %
715 16-12-2018 00:00:00 7.33667 C 67.4333 %
716 17-12-2018 00:00:00 7.74583 C 71.2333 %
717 18-12-2018 00:00:00 8.3475 C 72.4667 %
718 19-12-2018 00:00:00 8.60083 C 72.9417 %
719 20-12-2018 00:00:00 9.3175 C 74.0000 %
720 21-12-2018 00:00:00 10.0375 C 74.8333 %
721 22-12-2018 00:00:00 10.99417 C 74.3000 %
722 23-12-2018 00:00:00 10.525 C 74.6917 %
723 24-12-2018 00:00:00 10.26583 C 72.2917 %
724 25-12-2018 00:00:00 8.6825 C 71.1167 %
725 26-12-2018 00:00:00 7.58083 C 70.1333 %
Sensor: Nr:Datum:Temp:Feuchte:
G-T/H 726 27-12-2018 00:00:00 6.98167 C 70.2333 %
727 28-12-2018 00:00:00 6.8575 C 71.5833 %
728 29-12-2018 00:00:00 7.085 C 72.4583 %
729 30-12-2018 00:00:00 8.24 C 74.4417 %
730 31-12-2018 00:00:00 9.18833 C 75.6083 %
731 01-01-2019 00:00:00 9.65583 C 75.8167 %
732 02-01-2019 00:00:00 8.91333 C 73.4000 %
733 03-01-2019 00:00:00 7.65417 C 72.7000 %
734 04-01-2019 00:00:00 7.72667 C 73.7750 %
735 05-01-2019 00:00:00 8.26833 C 74.6083 %
736 06-01-2019 00:00:00 8.8 C 75.9250 %
737 07-01-2019 00:00:00 8.94 C 75.0167 %
738 08-01-2019 00:00:00 9.01833 C 74.5417 %
739 09-01-2019 00:00:00 8.46417 C 73.0417 %
740 10-01-2019 00:00:00 7.90083 C 71.3750 %
741 11-01-2019 00:00:00 7.57167 C 72.1167 %
742 12-01-2019 00:00:00 8.24417 C 74.2500 %
743 13-01-2019 00:00:00 8.91667 C 75.6333 %
744 14-01-2019 00:00:00 9.11083 C 74.7417 %
745 15-01-2019 00:00:00 8.33333 C 74.3833 %
746 16-01-2019 00:00:00 8.5125 C 74.7083 %
747 17-01-2019 00:00:00 8.4975 C 74.5500 %
748 18-01-2019 00:00:00 7.79333 C 72.6583 %
749 19-01-2019 00:00:00 6.99833 C 69.2000 %
750 20-01-2019 00:00:00 6.61083 C 64.8583 %
Sensor: Nr:Datum:Temp:Feuchte:
G-T/H 751 21-01-2019 00:00:00 6.18667 C 61.1750 %
752 22-01-2019 00:00:00 6.04833 C 60.2083 %
753 23-01-2019 00:00:00 6.2575 C 63.4917 %
754 24-01-2019 00:00:00 6.30833 C 65.6583 %
755 25-01-2019 00:00:00 6.2425 C 67.2833 %
756 26-01-2019 00:00:00 6.51833 C 71.7083 %
757 27-01-2019 00:00:00 7.75333 C 73.9667 %
758 28-01-2019 00:00:00 7.77417 C 74.2417 %
759 29-01-2019 00:00:00 7.46167 C 73.9917 %
760 30-01-2019 00:00:00 6.65667 C 69.5667 %
761 31-01-2019 00:00:00 6.54333 C 72.1667 %
762 01-02-2019 00:00:00 6.475 C 73.4167 %
763 02-02-2019 00:00:00 6.70083 C 74.6612 %
764 03-02-2019 00:00:00 6.98667 C 74.3417 %
765 04-02-2019 00:00:00 6.68333 C 73.8083 %
766 05-02-2019 00:00:00 7.12 C 74.5083 %
767 06-02-2019 00:00:00 6.9875 C 73.4333 %
768 07-02-2019 00:00:00 7.0025 C 74.8750 %
769 08-02-2019 00:00:00 7.93833 C 76.1083 %
770 09-02-2019 00:00:00 8.85917 C 76.1583 %
771 10-02-2019 00:00:00 9.2225 C 75.9667 %
772 11-02-2019 00:00:00 8.8125 C 75.1083 %
773 12-02-2019 00:00:00 8.09167 C 74.2167 %
774 13-02-2019 00:00:00 7.47583 C 73.5000 %
775 14-02-2019 00:00:00 6.95583 C 72.5083 %
Sensor: Nr:Datum:Temp:Feuchte:
G-T/H 776 15-02-2019 00:00:00 6.6825 C 71.6250 %
777 16-02-2019 00:00:00 6.53917 C 73.3083 %
778 17-02-2019 00:00:00 6.63667 C 74.1417 %
779 18-02-2019 00:00:00 6.65583 C 74.3000 %
780 19-02-2019 00:00:00 7.19417 C 75.8083 %
781 20-02-2019 00:00:00 7.495 C 75.5500 %
782 21-02-2019 00:00:00 7.76167 C 75.7333 %
783 22-02-2019 00:00:00 9.21417 C 77.2250 %
784 23-02-2019 00:00:00 9.20583 C 74.8917 %
785 24-02-2019 00:00:00 8.01917 C 72.1333 %
786 25-02-2019 00:00:00 7.5975 C 71.6250 %
787 26-02-2019 00:00:00 7.74083 C 71.5500 %
788 27-02-2019 00:00:00 6.63667 C 68.6917 %
789 28-02-2019 00:00:00 8.11917 C 73.1500 %
790 01-03-2019 00:00:00 9.37083 C 74.7583 %
791 02-03-2019 00:00:00 9.69333 C 72.8750 %
792 03-03-2019 00:00:00 10.36917 C 73.5083 %
793 04-03-2019 00:00:00 10.60917 C 73.1083 %
794 05-03-2019 00:00:00 9.71 C 71.6083 %
795 06-03-2019 00:00:00 9.71 C 73.4333 %
796 07-03-2019 00:00:00 10.48417 C 73.6500 %
797 08-03-2019 00:00:00 10.0575 C 72.7250 %
798 09-03-2019 00:00:00 10.17167 C 73.4333 %
799 10-03-2019 00:00:00 10.60917 C 71.4667 %
800 11-03-2019 00:00:00 9.44833 C 67.3667 %
Sensor: Nr:Datum:Temp:Feuchte:
G-T/H 801 12-03-2019 00:00:00 8.92417 C 70.4667 %
802 13-03-2019 00:00:00 9.345 C 71.3250 %
803 14-03-2019 00:00:00 9.13333 C 72.3750 %
804 15-03-2019 00:00:00 10.055 C 74.0583 %
805 16-03-2019 00:00:00 10.57417 C 72.1333 %
806 17-03-2019 00:00:00 9.70583 C 61.2083 %
807 18-03-2019 00:00:00 6.8675 C 62.4667 %
808 19-03-2019 00:00:00 6.02333 C 59.7583 %
809 20-03-2019 00:00:00 7.52333 C 64.5167 %
810 21-03-2019 00:00:00 9.29167 C 60.4917 %
811 22-03-2019 00:00:00 10.14833 C 61.3250 %
812 23-03-2019 00:00:00 10.15917 C 64.7250 %
813 24-03-2019 00:00:00 9.54833 C 67.2167 %
814 25-03-2019 00:00:00 9.15583 C 67.9000 %
815 26-03-2019 00:00:00 9.0525 C 69.7250 %
816 27-03-2019 00:00:00 9.47917 C 69.9333 %
817 28-03-2019 00:00:00 9.49583 C 69.9417 %
818 29-03-2019 00:00:00 10.2825 C 66.2583 %
819 30-03-2019 00:00:00 9.79667 C 60.6083 %
820 31-03-2019 00:00:00 11.2313 C 64.9130 %
821 01-04-2019 00:00:00 11.50333 C 60.3833 %
822 02-04-2019 00:00:00 11.2875 C 63.6333 %
823 03-04-2019 00:00:00 11.49833 C 67.0000 %
824 04-04-2019 00:00:00 10.56333 C 67.8833 %
825 05-04-2019 00:00:00 9.87333 C 68.5417 %
Sensor: Nr:Datum:Temp:Feuchte:
G-T/H 826 06-04-2019 00:00:00 10.76333 C 69.0417 %
827 07-04-2019 00:00:00 11.4925 C 68.0667 %
828 08-04-2019 00:00:00 12.30917 C 70.6833 %
829 09-04-2019 00:00:00 12.2875 C 74.7333 %
830 10-04-2019 00:00:00 12.35917 C 56.9917 %
831 11-04-2019 00:00:00 10.73083 C 48.4917 %
832 12-04-2019 00:00:00 9.57417 C 46.6333 %
833 13-04-2019 00:00:00 9.48583 C 55.2583 %
834 14-04-2019 00:00:00 9.175 C 58.5167 %
835 15-04-2019 00:00:00 10.07667 C 62.0833 %
836 16-04-2019 00:00:00 11.07083 C 62.2083 %
837 17-04-2019 00:00:00 12.33417 C 65.8333 %
838 18-04-2019 00:00:00 13.09417 C 62.0833 %
839 19-04-2019 00:00:00 14.9125 C 51.5500 %
840 20-04-2019 00:00:00 15.6775 C 48.0417 %
841 21-04-2019 00:00:00 16.29 C 47.3167 %
842 22-04-2019 00:00:00 15.22333 C 52.2417 %
843 23-04-2019 00:00:00 15.61417 C 53.2333 %
844 24-04-2019 00:00:00 15.37833 C 59.4167 %
845 25-04-2019 00:00:00 14.5575 C 61.5833 %
846 26-04-2019 00:00:00 14.28667 C 64.1250 %
847 27-04-2019 00:00:00 13.445 C 64.1833 %
848 28-04-2019 00:00:00 12.45 C 64.1833 %
849 29-04-2019 00:00:00 11.95083 C 63.4083 %
850 30-04-2019 00:00:00 13.89833 C 57.8083 %
Sensor: Nr:Datum:Temp:Feuchte:
G-T/H 851 01-05-2019 00:00:00 14.135 C 60.2833 %
852 02-05-2019 00:00:00 13.82333 C 62.1750 %
853 03-05-2019 00:00:00 13.86417 C 59.4750 %
854 04-05-2019 00:00:00 12.72083 C 59.0083 %
855 05-05-2019 00:00:00 11.31667 C 59.7917 %
856 06-05-2019 00:00:00 11.38833 C 61.2833 %
857 07-05-2019 00:00:00 11.88083 C 62.6250 %
858 08-05-2019 00:00:00 11.97 C 62.9333 %
859 09-05-2019 00:00:00 12.35167 C 66.7333 %
860 10-05-2019 00:00:00 12.92101 C 67.6218 %
861 11-05-2019 00:00:00 13.15833 C 68.0833 %
862 12-05-2019 00:00:00 12.12833 C 64.0833 %
863 13-05-2019 00:00:00 12.045 C 60.0000 %
864 14-05-2019 00:00:00 12.31083 C 59.7417 %
865 15-05-2019 00:00:00 12.7725 C 52.9833 %
866 16-05-2019 00:00:00 13.015 C 56.6333 %
867 17-05-2019 00:00:00 13.21917 C 63.1000 %
868 18-05-2019 00:00:00 14.04667 C 66.4250 %
869 19-05-2019 00:00:00 14.825 C 68.0750 %
870 20-05-2019 00:00:00 14.84583 C 68.8000 %
871 21-05-2019 00:00:00 14.15167 C 70.0167 %
872 22-05-2019 00:00:00 13.71167 C 69.7583 %
873 23-05-2019 00:00:00 15.29917 C 61.3750 %
874 24-05-2019 00:00:00 17.54 C 55.6333 %
875 25-05-2019 00:00:00 17.29083 C 56.6250 %
Sensor: Nr:Datum:Temp:Feuchte:
G-T/H 876 26-05-2019 00:00:00 16.44583 C 60.8167 %
877 27-05-2019 00:00:00 16.3925 C 64.3917 %
878 28-05-2019 00:00:00 15.71583 C 66.5333 %
879 29-05-2019 00:00:00 16.0475 C 54.4250 %
880 30-05-2019 00:00:00 15.75417 C 61.4167 %
881 31-05-2019 00:00:00 17.74167 C 65.2667 %
882 01-06-2019 00:00:00 18.025 C 65.0750 %
883 02-06-2019 00:00:00 18.60667 C 66.0917 %
884 03-06-2019 00:00:00 19.92333 C 65.8667 %
885 04-06-2019 00:00:00 19.69667 C 66.1500 %
886 05-06-2019 00:00:00 20.025 C 66.6917 %
887 06-06-2019 00:00:00 19.2775 C 64.1917 %
888 07-06-2019 00:00:00 17.86583 C 60.1250 %
889 08-06-2019 00:00:00 17.565 C 60.2333 %
890 09-06-2019 00:00:00 16.99667 C 61.5667 %
891 10-06-2019 00:00:00 17.96333 C 64.8583 %
892 11-06-2019 00:00:00 18.18333 C 66.3917 %
893 12-06-2019 00:00:00 17.70333 C 67.3917 %
894 13-06-2019 00:00:00 17.89167 C 58.1667 %
895 14-06-2019 00:00:00 19.59083 C 60.6083 %
896 15-06-2019 00:00:00 19.6625 C 64.9917 %
897 16-06-2019 00:00:00 19.56917 C 62.4417 %
898 17-06-2019 00:00:00 19.01167 C 62.8417 %
899 18-06-2019 00:00:00 21.23667 C 58.9250 %
900 19-06-2019 00:00:00 21.53167 C 61.1000 %
Sensor: Nr:Datum:Temp:Feuchte:
G-T/H 901 20-06-2019 00:00:00 20.7375 C 63.5667 %
902 21-06-2019 00:00:00 20.53083 C 52.5000 %
903 22-06-2019 00:00:00 20.16917 C 54.8083 %
904 23-06-2019 00:00:00 21.31917 C 57.1667 %
905 24-06-2019 00:00:00 23.94167 C 55.3000 %
906 25-06-2019 00:00:00 23.93083 C 58.5083 %
907 26-06-2019 00:00:00 24.37417 C 62.9417 %
908 27-06-2019 00:00:00 23.60667 C 60.8333 %
909 28-06-2019 00:00:00 22.21417 C 58.6667 %
910 29-06-2019 00:00:00 24.105 C 45.4667 %
911 30-06-2019 00:00:00 23.46833 C 52.6667 %
912 01-07-2019 00:00:00 23.14417 C 56.9333 %
913 02-07-2019 00:00:00 21.5975 C 49.7667 %
914 03-07-2019 00:00:00 20.46667 C 46.5000 %
915 04-07-2019 00:00:00 20.24 C 44.2750 %
916 05-07-2019 00:00:00 20.99583 C 47.4667 %
917 06-07-2019 00:00:00 21.055 C 53.0250 %
918 07-07-2019 00:00:00 20.39667 C 54.9083 %
919 08-07-2019 00:00:00 18.37167 C 51.1250 %
920 09-07-2019 00:00:00 18.10583 C 49.1417 %
921 10-07-2019 00:00:00 18.91917 C 42.0333 %
922 11-07-2019 00:00:00 18.91167 C 59.7083 %
923 12-07-2019 00:00:00 18.3025 C 73.7917 %
924 13-07-2019 00:00:00 18.47333 C 67.7417 %
925 14-07-2019 00:00:00 18.46917 C 65.0917 %
Sensor: Nr:Datum:Temp:Feuchte:
G-T/H 926 15-07-2019 00:00:00 18.2725 C 59.6250 %
927 16-07-2019 00:00:00 17.95917 C 58.3667 %
928 17-07-2019 00:00:00 18.23667 C 61.2917 %
929 18-07-2019 00:00:00 19.79417 C 58.3083 %
930 19-07-2019 00:00:00 19.79417 C 61.5917 %
931 20-07-2019 00:00:00 19.78583 C 63.8500 %
932 21-07-2019 00:00:00 20.41333 C 63.8583 %
933 22-07-2019 00:00:00 22.33167 C 54.5167 %
934 23-07-2019 00:00:00 22.5225 C 56.8667 %
935 24-07-2019 00:00:00 23.21833 C 58.3417 %
936 25-07-2019 00:00:00 24.345 C 57.0083 %
937 26-07-2019 00:00:00 24.17667 C 57.8500 %
938 27-07-2019 00:00:00 23.54 C 61.3083 %
939 28-07-2019 00:00:00 22.08333 C 64.8167 %
940 29-07-2019 00:00:00 21.58833 C 59.7917 %
941 30-07-2019 00:00:00 21.785 C 58.7750 %
942 31-07-2019 00:00:00 22.4025 C 50.4333 %
943 01-08-2019 00:00:00 21.77083 C 49.7000 %
944 02-08-2019 00:00:00 21.34583 C 55.7750 %
945 03-08-2019 00:00:00 20.90667 C 59.1167 %
946 04-08-2019 00:00:00 20.4525 C 59.4750 %
947 05-08-2019 00:00:00 22.07 C 57.0167 %
948 06-08-2019 00:00:00 21.48083 C 59.7417 %
949 07-08-2019 00:00:00 21.08 C 63.1500 %
950 08-08-2019 00:00:00 20.60333 C 62.6167 %
Sensor: Nr:Datum:Temp:Feuchte:
G-T/H 951 09-08-2019 00:00:00 20.50167 C 64.6000 %
952 10-08-2019 00:00:00 20.38917 C 65.0917 %
953 11-08-2019 00:00:00 19.8725 C 64.3750 %
954 12-08-2019 00:00:00 19.0475 C 65.6000 %
955 13-08-2019 00:00:00 18.645 C 58.8417 %
956 14-08-2019 00:00:00 18.54583 C 57.0833 %
957 15-08-2019 00:00:00 18.91583 C 62.6250 %
958 16-08-2019 00:00:00 18.59917 C 65.5583 %
959 17-08-2019 00:00:00 18.78167 C 67.1583 %
960 18-08-2019 00:00:00 19.07417 C 68.7167 %
961 19-08-2019 00:00:00 19.70167 C 61.8833 %
962 20-08-2019 00:00:00 18.7775 C 58.6500 %
963 21-08-2019 00:00:00 18.37 C 62.6500 %
964 22-08-2019 00:00:00 18.7725 C 58.7167 %
965 23-08-2019 00:00:00 19.34333 C 56.0250 %
966 24-08-2019 00:00:00 19.1825 C 58.5917 %
967 25-08-2019 00:00:00 19.53 C 63.3500 %
968 26-08-2019 00:00:00 21.84417 C 64.5833 %
969 27-08-2019 00:00:00 21.31417 C 66.1667 %
970 28-08-2019 00:00:00 21.07 C 66.6583 %
971 29-08-2019 00:00:00 21.03417 C 66.8417 %
972 30-08-2019 00:00:00 20.6775 C 66.8917 %
973 31-08-2019 00:00:00 20.2775 C 66.5917 %
974 01-09-2019 00:00:00 20.59167 C 65.4167 %
975 02-09-2019 00:00:00 18.59583 C 51.3417 %
Sensor: Nr:Datum:Temp:Feuchte:
G-T/H 976 03-09-2019 00:00:00 16.5475 C 53.5583 %
977 04-09-2019 00:00:00 18.68667 C 56.9667 %
978 05-09-2019 00:00:00 18.34667 C 60.0000 %
979 06-09-2019 00:00:00 17.44333 C 56.1750 %
980 07-09-2019 00:00:00 17.36583 C 60.4417 %
981 08-09-2019 00:00:00 16.54309 C 65.9350 %
982 09-09-2019 00:00:00 16.06067 C 66.7333 %
983 10-09-2019 00:00:00 15.23333 C 63.6597 %
984 11-09-2019 00:00:00 15.74097 C 61.0833 %
985 12-09-2019 00:00:00 17.93194 C 67.6319 %
986 13-09-2019 00:00:00 18.68472 C 70.9653 %
987 14-09-2019 00:00:00 18.01181 C 65.5903 %
988 15-09-2019 00:00:00 17.60347 C 61.9722 %
989 16-09-2019 00:00:00 17.78264 C 60.7361 %
990 17-09-2019 00:00:00 17.67431 C 62.7083 %
991 18-09-2019 00:00:00 15.39444 C 57.2778 %
992 19-09-2019 00:00:00 14.12361 C 57.3125 %
993 20-09-2019 00:00:00 13.22639 C 59.3056 %
994 21-09-2019 00:00:00 15.10833 C 52.5278 %
995 22-09-2019 00:00:00 15.13194 C 59.2083 %
996 23-09-2019 00:00:00 16.27153 C 64.4028 %
997 24-09-2019 00:00:00 16.11528 C 66.2778 %
998 25-09-2019 00:00:00 16.20556 C 67.8681 %
999 26-09-2019 00:00:00 16.33542 C 69.4097 %
1000 27-09-2019 00:00:00 16.76458 C 69.3611 %
Sensor: Nr:Datum:Temp:Feuchte:
G-T/H 1001 28-09-2019 00:00:00 16.47083 C 68.9792 %
1002 29-09-2019 00:00:00 16.41458 C 69.6528 %
1003 30-09-2019 00:00:00 16.64236 C 66.7917 %
1004 01-10-2019 00:00:00 16.54167 C 68.3542 %
1005 02-10-2019 00:00:00 16.15694 C 67.3056 %
1006 03-10-2019 00:00:00 14.67222 C 66.7361 %
1007 04-10-2019 00:00:00 14.15556 C 70.1319 %
1008 05-10-2019 00:00:00 14.31875 C 71.1667 %
1009 06-10-2019 00:00:00 13.69306 C 70.7847 %
1010 07-10-2019 00:00:00 13.58056 C 72.7153 %
1011 08-10-2019 00:00:00 14.14097 C 74.1597 %
1012 09-10-2019 00:00:00 14.23472 C 74.0486 %
1013 10-10-2019 00:00:00 14.00139 C 74.0278 %
1014 11-10-2019 00:00:00 13.98819 C 74.3333 %
1015 12-10-2019 00:00:00 14.71181 C 71.7639 %
1016 13-10-2019 00:00:00 15.13472 C 74.9097 %
1017 14-10-2019 00:00:00 16.34722 C 74.3958 %
1018 15-10-2019 00:00:00 15.98125 C 73.6597 %
1019 16-10-2019 00:00:00 15.42708 C 73.2986 %
1020 17-10-2019 00:00:00 15.28056 C 74.7292 %
1021 18-10-2019 00:00:00 15.18681 C 74.6042 %
1022 19-10-2019 00:00:00 14.72222 C 74.1944 %
1023 20-10-2019 00:00:00 14.40278 C 81.1597 %
1024 21-10-2019 00:00:00 14.60625 C 80.9028 %
1025 22-10-2019 00:00:00 14.62153 C 77.5000 %
Sensor: Nr:Datum:Temp:Feuchte:
G-T/H 1026 23-10-2019 00:00:00 14.00764 C 76.3542 %
1027 24-10-2019 00:00:00 14.52986 C 78.0139 %
1028 25-10-2019 00:00:00 15.10694 C 74.8681 %
1029 26-10-2019 00:00:00 14.99028 C 74.2153 %
1030 27-10-2019 00:00:00 14.43933 C 74.9333 %
1031 28-10-2019 00:00:00 12.81389 C 71.1806 %
1032 29-10-2019 00:00:00 12.35556 C 71.6389 %
1033 30-10-2019 00:00:00 10.98611 C 65.8194 %
1034 31-10-2019 00:00:00 9.49097 C 64.1736 %
1035 01-11-2019 00:00:00 9.67014 C 69.2569 %
1036 02-11-2019 00:00:00 12.01181 C 74.2222 %
1037 03-11-2019 00:00:00 12.91806 C 75.4861 %
1038 04-11-2019 00:00:00 12.97569 C 75.6250 %
1039 05-11-2019 00:00:00 12.58194 C 75.9444 %
1040 06-11-2019 00:00:00 12.33194 C 75.6528 %
1041 07-11-2019 00:00:00 12.18403 C 75.3403 %
1042 08-11-2019 00:00:00 11.13611 C 70.1181 %
1043 09-11-2019 00:00:00 11.02014 C 69.0972 %
1044 10-11-2019 00:00:00 9.95556 C 68.3056 %
1045 11-11-2019 00:00:00 9.96458 C 71.2708 %
1046 12-11-2019 00:00:00 10.11458 C 72.0972 %
1047 13-11-2019 00:00:00 10.0125 C 72.4097 %
1048 14-11-2019 00:00:00 9.73403 C 68.3958 %
1049 15-11-2019 00:00:00 9.68819 C 69.4028 %
1050 16-11-2019 00:00:00 9.6125 C 68.7083 %
Sensor: Nr:Datum:Temp:Feuchte:
G-T/H 1051 17-11-2019 00:00:00 9.03819 C 69.9306 %
1052 18-11-2019 00:00:00 9.47361 C 72.2500 %
1053 19-11-2019 00:00:00 9.40903 C 72.0833 %
1054 20-11-2019 00:00:00 8.93333 C 71.1181 %
1055 21-11-2019 00:00:00 8.40559 C 70.8182 %
1056 22-11-2019 00:00:00 8.70556 C 72.6736 %
1057 23-11-2019 00:00:00 9.32569 C 73.0972 %
1058 24-11-2019 00:00:00 9.08333 C 72.0764 %
1059 25-11-2019 00:00:00 9.04375 C 73.5069 %
1060 26-11-2019 00:00:00 9.85139 C 74.9375 %
1061 27-11-2019 00:00:00 10.87847 C 75.9236 %
1062 28-11-2019 00:00:00 11.51597 C 75.5069 %
1063 29-11-2019 00:00:00 11.25208 C 72.3542 %
1064 30-11-2019 00:00:00 9.66736 C 68.9097 %
1065 01-12-2019 00:00:00 8.81806 C 70.1806 %
1066 02-12-2019 00:00:00 8.35278 C 70.5417 %
1067 03-12-2019 00:00:00 8.74514 C 73.3472 %
1068 04-12-2019 00:00:00 8.79375 C 71.8403 %
1069 05-12-2019 00:00:00 7.92014 C 69.1458 %
1070 06-12-2019 00:00:00 7.57292 C 70.7014 %
1071 07-12-2019 00:00:00 8.97014 C 74.4514 %
1072 08-12-2019 00:00:00 10.25694 C 75.1667 %
1073 09-12-2019 00:00:00 10.48403 C 74.1111 %
1074 10-12-2019 00:00:00 9.34028 C 71.5903 %
1075 11-12-2019 00:00:00 8.75694 C 73.1250 %
Sensor: Nr:Datum:Temp:Feuchte:
G-T/H 1076 12-12-2019 00:00:00 8.81042 C 73.2500 %
1077 13-12-2019 00:00:00 8.51944 C 72.1458 %
1078 14-12-2019 00:00:00 8.92153 C 73.0764 %
1079 15-12-2019 00:00:00 9.56736 C 74.6667 %
1080 16-12-2019 00:00:00 9.90486 C 75.1389 %
1081 17-12-2019 00:00:00 10.43333 C 75.4583 %
1082 18-12-2019 00:00:00 10.925 C 75.4861 %
1083 19-12-2019 00:00:00 9.76667 C 73.6667 %
1084 20-12-2019 00:00:00 9.69375 C 75.0208 %
1085 21-12-2019 00:00:00 10.06458 C 74.5833 %
1086 22-12-2019 00:00:00 10.1375 C 75.1528 %
1087 23-12-2019 00:00:00 10.30417 C 75.3681 %
1088 24-12-2019 00:00:00 10.12639 C 74.9375 %
1089 25-12-2019 00:00:00 10.24444 C 75.9653 %
1090 26-12-2019 00:00:00 9.92708 C 75.2569 %
1091 27-12-2019 00:00:00 9.69444 C 75.5833 %
1092 28-12-2019 00:00:00 8.37639 C 70.3194 %
1093 29-12-2019 00:00:00 7.21528 C 69.6875 %
1094 30-12-2019 00:00:00 7.16944 C 69.0486 %
1095 31-12-2019 00:00:00 6.93194 C 69.9722 %

Maximal/Minimal-Werte vom 01.01.2017 - 31.12.2019

Sensor Min Max Avg
Temp
(Aussen-T/F)
-12.4 °C
22-01-2017  07:59:17
46.2 °C
19-06-2017  18:30:17
11.06 °C
Feuchte
(Aussen-T/F)
20 %
04-01-2017  12:10:17
78 %
23-11-2017  06:30:17
32.37 %
Temp
(G-T/H)
2 °C
27-02-2018  07:01:17
29.7 °C
26-07-2018  16:25:17
13.57 °C
Feuchte
(G-T/H)
25 %
29-06-2019  18:04:17
85 %
16-10-2017  15:03:17
66.2 %

Die Daten stammen von einer Davis Vantage Pro 2 Wetter-Station und werden unter Linux mit der Software wview2wettercgi und aufbereitet. Alle Angaben erfolgen ohne Gewähr für ihre Vollständigkeit oder Richtigkeit.
Kontakt: Rainer Krienke krienke@uni-koblenz.de . Meine Webseiten an der Uni Koblenz oder privat.
Version: $Revision: 0.78 $